| time (UTC) | temp C | wind direction | speed KPH | gust KPH | rain 1hr cm | rain 24hr cm | rain mn cm | humidity % | barometer mb |
| 20260504223438 | 22 | 222 | 6.4 | 0.0 | 0.00 | 0.00 | 0.00 | 33 | 1010.2 |
| 20260504223340 | 22 | 247 | 8.0 | 0.0 | 0.00 | 0.00 | 0.00 | 33 | 1010.2 |
| 20260504223221 | 22 | 181 | 6.4 | 0.0 | 0.00 | 0.00 | 0.00 | 33 | 1010.2 |
| 20260504223129 | 22 | 236 | 6.4 | 0.0 | 0.00 | 0.00 | 0.00 | 33 | 1010.2 |
| 20260504223028 | 22 | 221 | 6.4 | 0.0 | 0.00 | 0.00 | 0.00 | 33 | 1010.2 |
| 20260504222928 | 22 | 239 | 6.4 | 0.0 | 0.00 | 0.00 | 0.00 | 33 | 1010.2 |
| 20260504222826 | 22 | 193 | 4.8 | 0.0 | 0.00 | 0.00 | 0.00 | 33 | 1010.2 |
| 20260504222728 | 22 | 223 | 4.8 | 0.0 | 0.00 | 0.00 | 0.00 | 33 | 1010.2 |
| 20260504222629 | 22 | 183 | 4.8 | 0.0 | 0.00 | 0.00 | 0.00 | 33 | 1010.2 |
| 20260504222534 | 22 | 165 | 4.8 | 0.0 | 0.00 | 0.00 | 0.00 | 33 | 1010.2 |
| 20260504222434 | 22 | 178 | 3.2 | 0.0 | 0.00 | 0.00 | 0.00 | 33 | 1010.2 |
| 20260504222334 | 22 | 196 | 3.2 | 0.0 | 0.00 | 0.00 | 0.00 | 33 | 1010.2 |
| 20260504222257 | 22 | 115 | 3.2 | 0.0 | 0.00 | 0.00 | 0.00 | 33 | 1010.2 |
| 20260504222137 | 22 | 217 | 3.2 | 0.0 | 0.00 | 0.00 | 0.00 | 33 | 1010.2 |
| 20260504222036 | 22 | 262 | 3.2 | 0.0 | 0.00 | 0.00 | 0.00 | 33 | 1010.2 |
| 20260504221956 | 22 | 197 | 4.8 | 0.0 | 0.00 | 0.00 | 0.00 | 33 | 1010.2 |
| 20260504221854 | 22 | 155 | 4.8 | 0.0 | 0.00 | 0.00 | 0.00 | 33 | 1010.2 |
| 20260504221734 | 22 | 222 | 4.8 | 0.0 | 0.00 | 0.00 | 0.00 | 33 | 1010.2 |
| 20260504221635 | 22 | 207 | 4.8 | 0.0 | 0.00 | 0.00 | 0.00 | 33 | 1010.2 |
| 20260504221536 | 22 | 233 | 4.8 | 0.0 | 0.00 | 0.00 | 0.00 | 33 | 1010.2 |
| 20260504221436 | 22 | 236 | 6.4 | 0.0 | 0.00 | 0.00 | 0.00 | 33 | 1010.2 |
| 20260504221337 | 22 | 253 | 6.4 | 0.0 | 0.00 | 0.00 | 0.00 | 33 | 1010.4 |
| 20260504221235 | 22 | 323 | 8.0 | 0.0 | 0.00 | 0.00 | 0.00 | 33 | 1010.4 |
| 20260504221136 | 22 | 166 | 9.7 | 0.0 | 0.00 | 0.00 | 0.00 | 33 | 1010.4 |
| 20260504221055 | 22 | 213 | 8.0 | 0.0 | 0.00 | 0.00 | 0.00 | 32 | 1010.4 |
| 20260504220939 | 22 | 179 | 8.0 | 0.0 | 0.00 | 0.00 | 0.00 | 33 | 1010.4 |
| 20260504220837 | 22 | 180 | 8.0 | 0.0 | 0.00 | 0.00 | 0.00 | 33 | 1010.4 |
| 20260504220721 | 22 | 212 | 8.0 | 0.0 | 0.00 | 0.00 | 0.00 | 33 | 1010.4 |
| 20260504220647 | 22 | 184 | 8.0 | 0.0 | 0.00 | 0.00 | 0.00 | 33 | 1010.4 |
| 20260504220602 | 22 | 184 | 8.0 | 0.0 | 0.00 | 0.00 | 0.00 | 32 | 1010.4 |
| 20260504220426 | 22 | 208 | 8.0 | 0.0 | 0.00 | 0.00 | 0.00 | 32 | 1010.4 |
| 20260504220348 | 22 | 260 | 6.4 | 0.0 | 0.00 | 0.00 | 0.00 | 32 | 1010.4 |
| 20260504220229 | 23 | 178 | 4.8 | 0.0 | 0.00 | 0.00 | 0.00 | 32 | 1010.4 |
| 20260504220129 | 23 | 182 | 3.2 | 0.0 | 0.00 | 0.00 | 0.00 | 33 | 1010.4 |
| 20260504220032 | 23 | 163 | 4.8 | 0.0 | 0.00 | 0.00 | 0.00 | 33 | 1010.4 |
| 20260504215932 | 23 | 157 | 4.8 | 0.0 | 0.00 | 0.00 | 0.00 | 33 | 1010.4 |
| 20260504215830 | 23 | 178 | 4.8 | 0.0 | 0.00 | 0.00 | 0.00 | 33 | 1010.5 |
| 20260504215732 | 23 | 266 | 4.8 | 0.0 | 0.00 | 0.00 | 0.00 | 33 | 1010.5 |
| 20260504215633 | 22 | 190 | 6.4 | 0.0 | 0.00 | 0.00 | 0.00 | 33 | 1010.5 |
| 20260504215535 | 22 | 190 | 6.4 | 0.0 | 0.00 | 0.00 | 0.00 | 33 | 1010.5 |
| 20260504215434 | 22 | 271 | 6.4 | 0.0 | 0.00 | 0.00 | 0.00 | 33 | 1010.5 |
| 20260504215340 | 22 | 211 | 8.0 | 0.0 | 0.00 | 0.00 | 0.00 | 33 | 1010.5 |
| 20260504215238 | 22 | 268 | 8.0 | 0.0 | 0.00 | 0.00 | 0.00 | 33 | 1010.5 |
| 20260504215143 | 22 | 188 | 9.7 | 0.0 | 0.00 | 0.00 | 0.00 | 33 | 1010.5 |
| 20260504215029 | 22 | 205 | 8.0 | 0.0 | 0.00 | 0.00 | 0.00 | 33 | 1010.5 |
| 20260504214933 | 22 | 215 | 8.0 | 0.0 | 0.00 | 0.00 | 0.00 | 32 | 1010.5 |
| 20260504214834 | 22 | 241 | 8.0 | 0.0 | 0.00 | 0.00 | 0.00 | 32 | 1010.5 |
| 20260504214755 | 22 | 209 | 8.0 | 0.0 | 0.00 | 0.00 | 0.00 | 32 | 1010.5 |
| 20260504214632 | 22 | 179 | 8.0 | 0.0 | 0.00 | 0.00 | 0.00 | 33 | 1010.5 |
| 20260504214533 | 22 | 185 | 8.0 | 0.0 | 0.00 | 0.00 | 0.00 | 32 | 1010.5 |
| 20260504214435 | 22 | 180 | 8.0 | 0.0 | 0.00 | 0.00 | 0.00 | 32 | 1010.5 |
| 20260504214341 | 22 | 180 | 6.4 | 0.0 | 0.00 | 0.00 | 0.00 | 32 | 1010.5 |
| 20260504214241 | 23 | 175 | 6.4 | 0.0 | 0.00 | 0.00 | 0.00 | 32 | 1010.5 |
| 20260504214144 | 23 | 167 | 6.4 | 0.0 | 0.00 | 0.00 | 0.00 | 33 | 1010.5 |
| 20260504214106 | 22 | 192 | 8.0 | 0.0 | 0.00 | 0.00 | 0.00 | 33 | 1010.5 |
| 20260504213944 | 22 | 251 | 8.0 | 0.0 | 0.00 | 0.00 | 0.00 | 32 | 1010.5 |
| 20260504213843 | 22 | 230 | 8.0 | 0.0 | 0.00 | 0.00 | 0.00 | 32 | 1010.5 |
| 20260504213724 | 22 | 195 | 6.4 | 0.0 | 0.00 | 0.00 | 0.00 | 32 | 1010.5 |
| 20260504213649 | 22 | 178 | 6.4 | 0.0 | 0.00 | 0.00 | 0.00 | 32 | 1010.5 |
| 20260504213550 | 23 | 188 | 4.8 | 0.0 | 0.00 | 0.00 | 0.00 | 32 | 1010.5 |
| 20260504213449 | 23 | 259 | 4.8 | 0.0 | 0.00 | 0.00 | 0.00 | 32 | 1010.5 |
| 20260504213329 | 23 | 184 | 4.8 | 0.0 | 0.00 | 0.00 | 0.00 | 32 | 1010.5 |
| 20260504213247 | 23 | 161 | 4.8 | 0.0 | 0.00 | 0.00 | 0.00 | 32 | 1010.5 |
| 20260504213147 | 23 | 203 | 4.8 | 0.0 | 0.00 | 0.00 | 0.00 | 32 | 1010.5 |
| 20260504213044 | 23 | 190 | 4.8 | 0.0 | 0.00 | 0.00 | 0.00 | 32 | 1010.5 |
| 20260504212945 | 23 | 315 | 4.8 | 0.0 | 0.00 | 0.00 | 0.00 | 32 | 1010.5 |
| 20260504212844 | 23 | 189 | 4.8 | 0.0 | 0.00 | 0.00 | 0.00 | 32 | 1010.6 |
| 20260504212732 | 23 | 216 | 4.8 | 0.0 | 0.00 | 0.00 | 0.00 | 32 | 1010.6 |
| 20260504212629 | 23 | 249 | 4.8 | 0.0 | 0.00 | 0.00 | 0.00 | 32 | 1010.6 |
| 20260504212531 | 23 | 205 | 6.4 | 0.0 | 0.00 | 0.00 | 0.00 | 32 | 1010.6 |
| 20260504212448 | 23 | 186 | 6.4 | 0.0 | 0.00 | 0.00 | 0.00 | 32 | 1010.6 |
| 20260504212328 | 23 | 290 | 6.4 | 0.0 | 0.00 | 0.00 | 0.00 | 32 | 1010.6 |
| 20260504212248 | 23 | 170 | 4.8 | 0.0 | 0.00 | 0.00 | 0.00 | 32 | 1010.6 |
| 20260504212132 | 23 | 12 | 4.8 | 0.0 | 0.00 | 0.00 | 0.00 | 32 | 1010.6 |
| 20260504212033 | 23 | 236 | 4.8 | 0.0 | 0.00 | 0.00 | 0.00 | 33 | 1010.6 |
| 20260504211934 | 23 | 253 | 4.8 | 0.0 | 0.00 | 0.00 | 0.00 | 32 | 1010.6 |
| 20260504211834 | 23 | 155 | 4.8 | 0.0 | 0.00 | 0.00 | 0.00 | 33 | 1010.6 |
| 20260504211735 | 23 | 210 | 4.8 | 0.0 | 0.00 | 0.00 | 0.00 | 32 | 1010.6 |
| 20260504211656 | 23 | 196 | 4.8 | 0.0 | 0.00 | 0.00 | 0.00 | 32 | 1010.6 |
| 20260504211541 | 23 | 199 | 4.8 | 0.0 | 0.00 | 0.00 | 0.00 | 32 | 1010.6 |
| 20260504211441 | 23 | 201 | 4.8 | 0.0 | 0.00 | 0.00 | 0.00 | 31 | 1010.6 |
| 20260504211403 | 23 | 277 | 4.8 | 0.0 | 0.00 | 0.00 | 0.00 | 32 | 1010.5 |
| 20260504211224 | 23 | 234 | 6.4 | 0.0 | 0.00 | 0.00 | 0.00 | 32 | 1010.5 |
| 20260504211126 | 23 | 329 | 6.4 | 0.0 | 0.00 | 0.00 | 0.00 | 32 | 1010.5 |
| 20260504211027 | 23 | 251 | 6.4 | 0.0 | 0.00 | 0.00 | 0.00 | 32 | 1010.5 |
| 20260504210951 | 23 | 163 | 8.0 | 0.0 | 0.00 | 0.00 | 0.00 | 32 | 1010.5 |
| 20260504210850 | 23 | 205 | 6.4 | 0.0 | 0.00 | 0.00 | 0.00 | 32 | 1010.5 |
| 20260504210733 | 22 | 172 | 6.4 | 0.0 | 0.00 | 0.00 | 0.00 | 32 | 1010.5 |
| 20260504210634 | 22 | 157 | 6.4 | 0.0 | 0.00 | 0.00 | 0.00 | 32 | 1010.5 |
| 20260504210559 | 23 | 271 | 4.8 | 0.0 | 0.00 | 0.00 | 0.00 | 32 | 1010.5 |
| 20260504210500 | 23 | 243 | 4.8 | 0.0 | 0.00 | 0.00 | 0.00 | 32 | 1010.5 |
| 20260504210340 | 23 | 276 | 4.8 | 0.0 | 0.00 | 0.00 | 0.00 | 32 | 1010.5 |
| 20260504210301 | 23 | 143 | 4.8 | 0.0 | 0.00 | 0.00 | 0.00 | 32 | 1010.5 |
| 20260504210141 | 23 | 176 | 4.8 | 0.0 | 0.00 | 0.00 | 0.00 | 31 | 1010.5 |
| 20260504210043 | 23 | 305 | 4.8 | 0.0 | 0.00 | 0.00 | 0.00 | 31 | 1010.5 |
| 20260504210003 | 23 | 322 | 3.2 | 0.0 | 0.00 | 0.00 | 0.00 | 31 | 1010.5 |
| 20260504205837 | 23 | 282 | 3.2 | 0.0 | 0.00 | 0.00 | 0.00 | 31 | 1010.5 |
| 20260504205742 | 23 | 306 | 3.2 | 0.0 | 0.00 | 0.00 | 0.00 | 31 | 1010.5 |
| 20260504205624 | 23 | 292 | 3.2 | 0.0 | 0.00 | 0.00 | 0.00 | 32 | 1010.5 |
| 20260504205529 | 23 | 296 | 4.8 | 0.0 | 0.00 | 0.00 | 0.00 | 32 | 1010.5 |
| 20260504205445 | 23 | 192 | 3.2 | 0.0 | 0.00 | 0.00 | 0.00 | 32 | 1010.5 |
| 20260504205327 | 23 | 195 | 4.8 | 0.0 | 0.00 | 0.00 | 0.00 | 32 | 1010.5 |
| 20260504205228 | 23 | 200 | 4.8 | 0.0 | 0.00 | 0.00 | 0.00 | 32 | 1010.5 |
| 20260504205129 | 23 | 197 | 4.8 | 0.0 | 0.00 | 0.00 | 0.00 | 32 | 1010.5 |
| 20260504205032 | 23 | 249 | 4.8 | 0.0 | 0.00 | 0.00 | 0.00 | 32 | 1010.5 |
| 20260504204933 | 22 | 164 | 4.8 | 0.0 | 0.00 | 0.00 | 0.00 | 32 | 1010.5 |
| 20260504204858 | 22 | 135 | 6.4 | 0.0 | 0.00 | 0.00 | 0.00 | 32 | 1010.5 |
| 20260504204739 | 22 | 192 | 6.4 | 0.0 | 0.00 | 0.00 | 0.00 | 32 | 1010.5 |
| 20260504204640 | 22 | 159 | 6.4 | 0.0 | 0.00 | 0.00 | 0.00 | 31 | 1010.5 |
| 20260504204542 | 22 | 170 | 6.4 | 0.0 | 0.00 | 0.00 | 0.00 | 32 | 1010.5 |
| 20260504204439 | 22 | 247 | 6.4 | 0.0 | 0.00 | 0.00 | 0.00 | 31 | 1010.5 |
| 20260504204324 | 22 | 263 | 6.4 | 0.0 | 0.00 | 0.00 | 0.00 | 31 | 1010.5 |
| 20260504204225 | 23 | 226 | 6.4 | 0.0 | 0.00 | 0.00 | 0.00 | 31 | 1010.5 |
| 20260504204127 | 23 | 209 | 4.8 | 0.0 | 0.00 | 0.00 | 0.00 | 31 | 1010.5 |
| 20260504204026 | 23 | 206 | 4.8 | 0.0 | 0.00 | 0.00 | 0.00 | 31 | 1010.5 |
| 20260504203927 | 23 | 246 | 4.8 | 0.0 | 0.00 | 0.00 | 0.00 | 31 | 1010.5 |
| 20260504203826 | 23 | 194 | 3.2 | 0.0 | 0.00 | 0.00 | 0.00 | 31 | 1010.5 |
| 20260504203735 | 23 | 241 | 3.2 | 0.0 | 0.00 | 0.00 | 0.00 | 32 | 1010.5 |
| 20260504203655 | 23 | 244 | 3.2 | 0.0 | 0.00 | 0.00 | 0.00 | 31 | 1010.5 |
| 20260504203556 | 23 | 144 | 3.2 | 0.0 | 0.00 | 0.00 | 0.00 | 31 | 1010.5 |
| 20260504203432 | 23 | 171 | 3.2 | 0.0 | 0.00 | 0.00 | 0.00 | 31 | 1010.5 |
| 20260504203333 | 23 | 127 | 3.2 | 0.0 | 0.00 | 0.00 | 0.00 | 31 | 1010.5 |
| 20260504203235 | 23 | 163 | 3.2 | 0.0 | 0.00 | 0.00 | 0.00 | 31 | 1010.5 |
| 20260504203138 | 23 | 197 | 4.8 | 0.0 | 0.00 | 0.00 | 0.00 | 31 | 1010.5 |
| 20260504203044 | 23 | 245 | 4.8 | 0.0 | 0.00 | 0.00 | 0.00 | 31 | 1010.5 |
| 20260504203004 | 23 | 165 | 4.8 | 0.0 | 0.00 | 0.00 | 0.00 | 30 | 1010.5 |
| 20260504202824 | 23 | 184 | 4.8 | 0.0 | 0.00 | 0.00 | 0.00 | 30 | 1010.5 |
| 20260504202726 | 23 | 195 | 4.8 | 0.0 | 0.00 | 0.00 | 0.00 | 31 | 1010.5 |
| 20260504202627 | 23 | 172 | 4.8 | 0.0 | 0.00 | 0.00 | 0.00 | 31 | 1010.5 |
| 20260504202528 | 23 | 169 | 4.8 | 0.0 | 0.00 | 0.00 | 0.00 | 32 | 1010.5 |
| 20260504202425 | 23 | 169 | 4.8 | 0.0 | 0.00 | 0.00 | 0.00 | 32 | 1010.5 |
| 20260504202331 | 23 | 173 | 6.4 | 0.0 | 0.00 | 0.00 | 0.00 | 32 | 1010.5 |
| 20260504202248 | 23 | 192 | 6.4 | 0.0 | 0.00 | 0.00 | 0.00 | 32 | 1010.5 |
| 20260504202131 | 23 | 187 | 6.4 | 0.0 | 0.00 | 0.00 | 0.00 | 31 | 1010.5 |
| 20260504202030 | 23 | 219 | 6.4 | 0.0 | 0.00 | 0.00 | 0.00 | 32 | 1010.5 |
| 20260504201932 | 23 | 160 | 6.4 | 0.0 | 0.00 | 0.00 | 0.00 | 32 | 1010.5 |
| 20260504201831 | 22 | 216 | 6.4 | 0.0 | 0.00 | 0.00 | 0.00 | 31 | 1010.5 |
| 20260504201731 | 22 | 182 | 8.0 | 0.0 | 0.00 | 0.00 | 0.00 | 31 | 1010.5 |
| 20260504201636 | 23 | 217 | 8.0 | 0.0 | 0.00 | 0.00 | 0.00 | 32 | 1010.5 |
| 20260504201559 | 22 | 181 | 8.0 | 0.0 | 0.00 | 0.00 | 0.00 | 32 | 1010.5 |
| 20260504201434 | 22 | 224 | 8.0 | 0.0 | 0.00 | 0.00 | 0.00 | 32 | 1010.5 |
| 20260504201335 | 22 | 240 | 8.0 | 0.0 | 0.00 | 0.00 | 0.00 | 32 | 1010.6 |
| 20260504201253 | 22 | 138 | 8.0 | 0.0 | 0.00 | 0.00 | 0.00 | 32 | 1010.6 |
| 20260504201132 | 22 | 178 | 8.0 | 0.0 | 0.00 | 0.00 | 0.00 | 32 | 1010.6 |
| 20260504201036 | 22 | 163 | 6.4 | 0.0 | 0.00 | 0.00 | 0.00 | 32 | 1010.6 |
| 20260504200955 | 22 | 240 | 6.4 | 0.0 | 0.00 | 0.00 | 0.00 | 32 | 1010.6 |
| 20260504200836 | 22 | 210 | 6.4 | 0.0 | 0.00 | 0.00 | 0.00 | 31 | 1010.6 |
| 20260504200738 | 22 | 195 | 6.4 | 0.0 | 0.00 | 0.00 | 0.00 | 31 | 1010.6 |
| 20260504200642 | 22 | 242 | 4.8 | 0.0 | 0.00 | 0.00 | 0.00 | 31 | 1010.6 |
| 20260504200604 | 22 | 178 | 4.8 | 0.0 | 0.00 | 0.00 | 0.00 | 31 | 1010.6 |
| 20260504200443 | 22 | 280 | 4.8 | 0.0 | 0.00 | 0.00 | 0.00 | 31 | 1010.6 |
| 20260504200325 | 22 | 170 | 6.4 | 0.0 | 0.00 | 0.00 | 0.00 | 31 | 1010.6 |
| 20260504200225 | 22 | 219 | 6.4 | 0.0 | 0.00 | 0.00 | 0.00 | 31 | 1010.6 |
| 20260504200131 | 22 | 190 | 8.0 | 0.0 | 0.00 | 0.00 | 0.00 | 31 | 1010.6 |
| 20260504200052 | 22 | 187 | 8.0 | 0.0 | 0.00 | 0.00 | 0.00 | 31 | 1010.6 |
| 20260504195932 | 22 | 197 | 8.0 | 0.0 | 0.00 | 0.00 | 0.00 | 31 | 1010.6 |
| 20260504195830 | 22 | 181 | 8.0 | 0.0 | 0.00 | 0.00 | 0.00 | 31 | 1010.9 |
| 20260504195751 | 22 | 168 | 6.4 | 0.0 | 0.00 | 0.00 | 0.00 | 32 | 1010.9 |
| 20260504195628 | 22 | 184 | 8.0 | 0.0 | 0.00 | 0.00 | 0.00 | 31 | 1010.9 |
| 20260504195531 | 22 | 164 | 6.4 | 0.0 | 0.00 | 0.00 | 0.00 | 31 | 1010.9 |
| 20260504195435 | 22 | 145 | 6.4 | 0.0 | 0.00 | 0.00 | 0.00 | 31 | 1010.9 |
| 20260504195358 | 22 | 171 | 6.4 | 0.0 | 0.00 | 0.00 | 0.00 | 31 | 1010.9 |
| 20260504195239 | 22 | 272 | 6.4 | 0.0 | 0.00 | 0.00 | 0.00 | 31 | 1010.9 |
| 20260504195142 | 22 | 173 | 6.4 | 0.0 | 0.00 | 0.00 | 0.00 | 32 | 1010.9 |
| 20260504195041 | 22 | 178 | 6.4 | 0.0 | 0.00 | 0.00 | 0.00 | 31 | 1010.9 |
| 20260504194941 | 22 | 237 | 4.8 | 0.0 | 0.00 | 0.00 | 0.00 | 32 | 1010.9 |
| 20260504194839 | 22 | 149 | 6.4 | 0.0 | 0.00 | 0.00 | 0.00 | 31 | 1010.9 |
| 20260504194724 | 22 | 213 | 6.4 | 0.0 | 0.00 | 0.00 | 0.00 | 32 | 1010.9 |
| 20260504194625 | 22 | 184 | 8.0 | 0.0 | 0.00 | 0.00 | 0.00 | 32 | 1010.9 |
| 20260504194527 | 22 | 181 | 8.0 | 0.0 | 0.00 | 0.00 | 0.00 | 32 | 1010.9 |
| 20260504194426 | 22 | 178 | 8.0 | 0.0 | 0.00 | 0.00 | 0.00 | 31 | 1010.9 |
| 20260504194327 | 22 | 153 | 8.0 | 0.0 | 0.00 | 0.00 | 0.00 | 31 | 1011.0 |
| 20260504194246 | 22 | 149 | 8.0 | 0.0 | 0.00 | 0.00 | 0.00 | 32 | 1011.0 |
| 20260504194131 | 22 | 123 | 8.0 | 0.0 | 0.00 | 0.00 | 0.00 | 32 | 1011.0 |
| 20260504194035 | 22 | 188 | 6.4 | 0.0 | 0.00 | 0.00 | 0.00 | 32 | 1011.0 |
| 20260504193939 | 22 | 237 | 6.4 | 0.0 | 0.00 | 0.00 | 0.00 | 32 | 1011.0 |
| 20260504193840 | 22 | 245 | 8.0 | 0.0 | 0.00 | 0.00 | 0.00 | 32 | 1011.0 |
| 20260504193802 | 22 | 233 | 8.0 | 0.0 | 0.00 | 0.00 | 0.00 | 32 | 1011.0 |
| 20260504193639 | 22 | 199 | 8.0 | 0.0 | 0.00 | 0.00 | 0.00 | 31 | 1011.0 |
| 20260504193545 | 22 | 176 | 8.0 | 0.0 | 0.00 | 0.00 | 0.00 | 32 | 1011.0 |
| 20260504193427 | 22 | 203 | 8.0 | 0.0 | 0.00 | 0.00 | 0.00 | 31 | 1011.0 |
| 20260504193351 | 22 | 188 | 6.4 | 0.0 | 0.00 | 0.00 | 0.00 | 32 | 1011.0 |
| 20260504193231 | 22 | 180 | 6.4 | 0.0 | 0.00 | 0.00 | 0.00 | 32 | 1011.0 |
| 20260504193137 | 22 | 175 | 8.0 | 0.0 | 0.00 | 0.00 | 0.00 | 32 | 1011.0 |
| 20260504193038 | 22 | 91 | 8.0 | 0.0 | 0.00 | 0.00 | 0.00 | 32 | 1011.0 |
| 20260504192938 | 22 | 184 | 9.7 | 0.0 | 0.00 | 0.00 | 0.00 | 31 | 1011.0 |
| 20260504192839 | 22 | 230 | 8.0 | 0.0 | 0.00 | 0.00 | 0.00 | 31 | 1011.1 |
| 20260504192726 | 22 | 192 | 9.7 | 0.0 | 0.00 | 0.00 | 0.00 | 32 | 1011.1 |
| 20260504192627 | 22 | 170 | 8.0 | 0.0 | 0.00 | 0.00 | 0.00 | 33 | 1011.1 |
| 20260504192529 | 22 | 200 | 8.0 | 0.0 | 0.00 | 0.00 | 0.00 | 32 | 1011.1 |
| 20260504192425 | 22 | 170 | 8.0 | 0.0 | 0.00 | 0.00 | 0.00 | 32 | 1011.1 |
| 20260504192327 | 22 | 154 | 9.7 | 0.0 | 0.00 | 0.00 | 0.00 | 32 | 1011.1 |
| 20260504192245 | 22 | 203 | 9.7 | 0.0 | 0.00 | 0.00 | 0.00 | 32 | 1011.1 |
| 20260504192146 | 22 | 192 | 9.7 | 0.0 | 0.00 | 0.00 | 0.00 | 31 | 1011.1 |
| 20260504192028 | 22 | 183 | 8.0 | 0.0 | 0.00 | 0.00 | 0.00 | 31 | 1011.1 |
| 20260504191932 | 22 | 166 | 8.0 | 0.0 | 0.00 | 0.00 | 0.00 | 32 | 1011.1 |
| 20260504191829 | 22 | 208 | 8.0 | 0.0 | 0.00 | 0.00 | 0.00 | 31 | 1011.1 |
| 20260504191730 | 22 | 176 | 6.4 | 0.0 | 0.00 | 0.00 | 0.00 | 32 | 1011.1 |
| 20260504191627 | 22 | 193 | 6.4 | 0.0 | 0.00 | 0.00 | 0.00 | 32 | 1011.1 |
| 20260504191529 | 22 | 262 | 4.8 | 0.0 | 0.00 | 0.00 | 0.00 | 31 | 1011.1 |
| 20260504191430 | 22 | 282 | 4.8 | 0.0 | 0.00 | 0.00 | 0.00 | 32 | 1011.1 |
| 20260504191331 | 22 | 156 | 4.8 | 0.0 | 0.00 | 0.00 | 0.00 | 32 | 1011.2 |
| 20260504191233 | 22 | 199 | 4.8 | 0.0 | 0.00 | 0.00 | 0.00 | 31 | 1011.2 |
| 20260504191134 | 22 | 205 | 4.8 | 0.0 | 0.00 | 0.00 | 0.00 | 32 | 1011.2 |
| 20260504191055 | 22 | 211 | 4.8 | 0.0 | 0.00 | 0.00 | 0.00 | 32 | 1011.2 |
| 20260504190936 | 22 | 183 | 4.8 | 0.0 | 0.00 | 0.00 | 0.00 | 32 | 1011.2 |
| 20260504190837 | 22 | 233 | 4.8 | 0.0 | 0.00 | 0.00 | 0.00 | 33 | 1011.2 |
| 20260504190737 | 22 | 171 | 6.4 | 0.0 | 0.00 | 0.00 | 0.00 | 33 | 1011.2 |
| 20260504190642 | 22 | 179 | 6.4 | 0.0 | 0.00 | 0.00 | 0.00 | 33 | 1011.2 |
| 20260504190545 | 22 | 172 | 6.4 | 0.0 | 0.00 | 0.00 | 0.00 | 33 | 1011.2 |
| 20260504190506 | 22 | 166 | 6.4 | 0.0 | 0.00 | 0.00 | 0.00 | 33 | 1011.2 |
| 20260504190407 | 22 | 175 | 8.0 | 0.0 | 0.00 | 0.00 | 0.00 | 32 | 1011.2 |
| 20260504190223 | 22 | 215 | 8.0 | 0.0 | 0.00 | 0.00 | 0.00 | 32 | 1011.2 |
| 20260504190128 | 22 | 241 | 8.0 | 0.0 | 0.00 | 0.00 | 0.00 | 33 | 1011.2 |
| 20260504190027 | 22 | 183 | 8.0 | 0.0 | 0.00 | 0.00 | 0.00 | 33 | 1011.2 |
| 20260504185930 | 22 | 157 | 8.0 | 0.0 | 0.00 | 0.00 | 0.00 | 32 | 1011.2 |
| 20260504185832 | 22 | 230 | 6.4 | 0.0 | 0.00 | 0.00 | 0.00 | 32 | 1011.4 |
| 20260504185734 | 22 | 155 | 6.4 | 0.0 | 0.00 | 0.00 | 0.00 | 33 | 1011.4 |
| 20260504185630 | 22 | 161 | 6.4 | 0.0 | 0.00 | 0.00 | 0.00 | 32 | 1011.4 |
| 20260504185552 | 22 | 136 | 8.0 | 0.0 | 0.00 | 0.00 | 0.00 | 32 | 1011.4 |
| 20260504185428 | 22 | 162 | 8.0 | 0.0 | 0.00 | 0.00 | 0.00 | 32 | 1011.4 |
| 20260504185330 | 22 | 217 | 8.0 | 0.0 | 0.00 | 0.00 | 0.00 | 32 | 1011.4 |
| 20260504185232 | 22 | 210 | 6.4 | 0.0 | 0.00 | 0.00 | 0.00 | 32 | 1011.4 |
| 20260504185133 | 22 | 187 | 6.4 | 0.0 | 0.00 | 0.00 | 0.00 | 33 | 1011.4 |
| 20260504185059 | 22 | 174 | 6.4 | 0.0 | 0.00 | 0.00 | 0.00 | 33 | 1011.4 |
| 20260504184942 | 22 | 211 | 6.4 | 0.0 | 0.00 | 0.00 | 0.00 | 32 | 1011.4 |
| 20260504184839 | 22 | 230 | 6.4 | 0.0 | 0.00 | 0.00 | 0.00 | 32 | 1011.4 |
| 20260504184739 | 22 | 250 | 4.8 | 0.0 | 0.00 | 0.00 | 0.00 | 32 | 1011.4 |
| 20260504184638 | 22 | 202 | 4.8 | 0.0 | 0.00 | 0.00 | 0.00 | 32 | 1011.4 |
| 20260504184544 | 22 | 213 | 4.8 | 0.0 | 0.00 | 0.00 | 0.00 | 32 | 1011.4 |
| 20260504184441 | 22 | 211 | 4.8 | 0.0 | 0.00 | 0.00 | 0.00 | 33 | 1011.4 |
| 20260504184344 | 22 | 184 | 6.4 | 0.0 | 0.00 | 0.00 | 0.00 | 34 | 1011.6 |
| 20260504184222 | 22 | 168 | 6.4 | 0.0 | 0.00 | 0.00 | 0.00 | 33 | 1011.6 |
| 20260504184126 | 22 | 177 | 6.4 | 0.0 | 0.00 | 0.00 | 0.00 | 33 | 1011.6 |
| 20260504184028 | 22 | 210 | 6.4 | 0.0 | 0.00 | 0.00 | 0.00 | 34 | 1011.6 |
| 20260504183933 | 22 | 139 | 6.4 | 0.0 | 0.00 | 0.00 | 0.00 | 34 | 1011.6 |
| 20260504183837 | 22 | 122 | 6.4 | 0.0 | 0.00 | 0.00 | 0.00 | 34 | 1011.6 |
| 20260504183759 | 22 | 122 | 6.4 | 0.0 | 0.00 | 0.00 | 0.00 | 33 | 1011.6 |
| 20260504183657 | 22 | 194 | 6.4 | 0.0 | 0.00 | 0.00 | 0.00 | 33 | 1011.6 |
| 20260504183536 | 22 | 227 | 4.8 | 0.0 | 0.00 | 0.00 | 0.00 | 34 | 1011.6 |
| 20260504183434 | 22 | 278 | 4.8 | 0.0 | 0.00 | 0.00 | 0.00 | 34 | 1011.6 |
| 20260504183335 | 22 | 240 | 4.8 | 0.0 | 0.00 | 0.00 | 0.00 | 33 | 1011.6 |
| 20260504183220 | 22 | 190 | 4.8 | 0.0 | 0.00 | 0.00 | 0.00 | 34 | 1011.6 |
| 20260504183126 | 22 | 147 | 4.8 | 0.0 | 0.00 | 0.00 | 0.00 | 34 | 1011.6 |
| 20260504183026 | 22 | 201 | 4.8 | 0.0 | 0.00 | 0.00 | 0.00 | 35 | 1011.6 |
| 20260504182927 | 22 | 227 | 6.4 | 0.0 | 0.00 | 0.00 | 0.00 | 35 | 1011.6 |
| 20260504182829 | 22 | 122 | 6.4 | 0.0 | 0.00 | 0.00 | 0.00 | 35 | 1012.0 |
| 20260504182730 | 22 | 191 | 6.4 | 0.0 | 0.00 | 0.00 | 0.00 | 35 | 1012.0 |
| 20260504182631 | 21 | 157 | 8.0 | 0.0 | 0.00 | 0.00 | 0.00 | 35 | 1012.0 |
| 20260504182532 | 21 | 203 | 9.7 | 0.0 | 0.00 | 0.00 | 0.00 | 35 | 1012.0 |
| 20260504182429 | 21 | 178 | 9.7 | 0.0 | 0.00 | 0.00 | 0.00 | 34 | 1012.0 |
| 20260504182351 | 21 | 284 | 9.7 | 0.0 | 0.00 | 0.00 | 0.00 | 34 | 1012.0 |
| 20260504182233 | 21 | 226 | 9.7 | 0.0 | 0.00 | 0.00 | 0.00 | 34 | 1012.0 |
| 20260504182134 | 21 | 215 | 9.7 | 0.0 | 0.00 | 0.00 | 0.00 | 34 | 1012.0 |
| 20260504182037 | 21 | 194 | 9.7 | 0.0 | 0.00 | 0.00 | 0.00 | 34 | 1012.0 |
| 20260504181941 | 21 | 190 | 8.0 | 0.0 | 0.00 | 0.00 | 0.00 | 34 | 1012.0 |
| 20260504181841 | 21 | 219 | 8.0 | 0.0 | 0.00 | 0.00 | 0.00 | 34 | 1012.0 |
| 20260504181743 | 21 | 180 | 8.0 | 0.0 | 0.00 | 0.00 | 0.00 | 35 | 1012.0 |
| 20260504181644 | 21 | 192 | 8.0 | 0.0 | 0.00 | 0.00 | 0.00 | 35 | 1012.0 |
| 20260504181606 | 22 | 186 | 8.0 | 0.0 | 0.00 | 0.00 | 0.00 | 35 | 1012.0 |
| 20260504181442 | 22 | 155 | 8.0 | 0.0 | 0.00 | 0.00 | 0.00 | 35 | 1012.0 |
| 20260504181344 | 22 | 169 | 8.0 | 0.0 | 0.00 | 0.00 | 0.00 | 35 | 1012.1 |
| 20260504181226 | 22 | 166 | 6.4 | 0.0 | 0.00 | 0.00 | 0.00 | 35 | 1012.1 |
| 20260504181128 | 22 | 249 | 6.4 | 0.0 | 0.00 | 0.00 | 0.00 | 35 | 1012.1 |
| 20260504181027 | 22 | 126 | 6.4 | 0.0 | 0.00 | 0.00 | 0.00 | 35 | 1012.1 |
| 20260504180931 | 22 | 188 | 6.4 | 0.0 | 0.00 | 0.00 | 0.00 | 34 | 1012.1 |
| 20260504180832 | 22 | 264 | 6.4 | 0.0 | 0.00 | 0.00 | 0.00 | 34 | 1012.1 |
| 20260504180732 | 22 | 203 | 6.4 | 0.0 | 0.00 | 0.00 | 0.00 | 34 | 1012.1 |
| 20260504180639 | 22 | 174 | 6.4 | 0.0 | 0.00 | 0.00 | 0.00 | 35 | 1012.1 |
| 20260504180544 | 22 | 200 | 4.8 | 0.0 | 0.00 | 0.00 | 0.00 | 35 | 1012.1 |
| 20260504180421 | 22 | 147 | 6.4 | 0.0 | 0.00 | 0.00 | 0.00 | 34 | 1012.1 |
| 20260504180347 | 22 | 180 | 8.0 | 0.0 | 0.00 | 0.00 | 0.00 | 34 | 1012.1 |
| 20260504180225 | 22 | 197 | 9.7 | 0.0 | 0.00 | 0.00 | 0.00 | 35 | 1012.1 |
| 20260504180146 | 22 | 177 | 8.0 | 0.0 | 0.00 | 0.00 | 0.00 | 35 | 1012.1 |
| 20260504180027 | 22 | 159 | 8.0 | 0.0 | 0.00 | 0.00 | 0.00 | 35 | 1012.1 |
| 20260504175928 | 21 | 205 | 8.0 | 0.0 | 0.00 | 0.00 | 0.00 | 35 | 1012.1 |
| 20260504175826 | 21 | 176 | 8.0 | 0.0 | 0.00 | 0.00 | 0.00 | 34 | 1012.4 |
| 20260504175728 | 21 | 180 | 8.0 | 0.0 | 0.00 | 0.00 | 0.00 | 34 | 1012.4 |
| 20260504175629 | 21 | 226 | 6.4 | 0.0 | 0.00 | 0.00 | 0.00 | 35 | 1012.4 |
| 20260504175555 | 21 | 176 | 6.4 | 0.0 | 0.00 | 0.00 | 0.00 | 35 | 1012.4 |
| 20260504175430 | 21 | 240 | 4.8 | 0.0 | 0.00 | 0.00 | 0.00 | 35 | 1012.4 |
| 20260504175334 | 21 | 151 | 4.8 | 0.0 | 0.00 | 0.00 | 0.00 | 35 | 1012.4 |
| 20260504175235 | 21 | 240 | 4.8 | 0.0 | 0.00 | 0.00 | 0.00 | 35 | 1012.4 |
| 20260504175138 | 21 | 222 | 6.4 | 0.0 | 0.00 | 0.00 | 0.00 | 35 | 1012.4 |
| 20260504175040 | 21 | 159 | 6.4 | 0.0 | 0.00 | 0.00 | 0.00 | 34 | 1012.4 |
| 20260504175001 | 21 | 198 | 8.0 | 0.0 | 0.00 | 0.00 | 0.00 | 35 | 1012.4 |
| 20260504174841 | 21 | 187 | 8.0 | 0.0 | 0.00 | 0.00 | 0.00 | 34 | 1012.4 |
| 20260504174742 | 21 | 267 | 9.7 | 0.0 | 0.00 | 0.00 | 0.00 | 35 | 1012.4 |
| 20260504174624 | 21 | 186 | 9.7 | 0.0 | 0.00 | 0.00 | 0.00 | 35 | 1012.4 |
| 20260504174530 | 21 | 174 | 9.7 | 0.0 | 0.00 | 0.00 | 0.00 | 34 | 1012.4 |
| 20260504174427 | 21 | 242 | 9.7 | 0.0 | 0.00 | 0.00 | 0.00 | 34 | 1012.4 |
| 20260504174348 | 21 | 243 | 9.7 | 0.0 | 0.00 | 0.00 | 0.00 | 34 | 1012.4 |
| 20260504174247 | 21 | 180 | 9.7 | 0.0 | 0.00 | 0.00 | 0.00 | 34 | 1012.4 |
| 20260504174127 | 21 | 169 | 9.7 | 0.0 | 0.00 | 0.00 | 0.00 | 33 | 1012.4 |
| 20260504174046 | 21 | 230 | 8.0 | 0.0 | 0.00 | 0.00 | 0.00 | 34 | 1012.4 |
| 20260504173945 | 21 | 209 | 8.0 | 0.0 | 0.00 | 0.00 | 0.00 | 34 | 1012.4 |
| 20260504173826 | 21 | 211 | 8.0 | 0.0 | 0.00 | 0.00 | 0.00 | 34 | 1012.4 |
| 20260504173727 | 21 | 151 | 6.4 | 0.0 | 0.00 | 0.00 | 0.00 | 34 | 1012.4 |
| 20260504173650 | 21 | 168 | 6.4 | 0.0 | 0.00 | 0.00 | 0.00 | 34 | 1012.4 |
| 20260504173531 | 21 | 169 | 6.4 | 0.0 | 0.00 | 0.00 | 0.00 | 34 | 1012.4 |
| 20260504173427 | 21 | 182 | 6.4 | 0.0 | 0.00 | 0.00 | 0.00 | 34 | 1012.4 |
| 20260504173327 | 21 | 198 | 6.4 | 0.0 | 0.00 | 0.00 | 0.00 | 34 | 1012.4 |
| 20260504173226 | 21 | 286 | 6.4 | 0.0 | 0.00 | 0.00 | 0.00 | 35 | 1012.4 |
| 20260504173131 | 21 | 177 | 6.4 | 0.0 | 0.00 | 0.00 | 0.00 | 35 | 1012.4 |
| 20260504173030 | 21 | 191 | 6.4 | 0.0 | 0.00 | 0.00 | 0.00 | 34 | 1012.4 |
| 20260504172930 | 21 | 226 | 6.4 | 0.0 | 0.00 | 0.00 | 0.00 | 35 | 1012.4 |
| 20260504172831 | 21 | 143 | 4.8 | 0.0 | 0.00 | 0.00 | 0.00 | 35 | 1012.7 |
| 20260504172733 | 21 | 296 | 6.4 | 0.0 | 0.00 | 0.00 | 0.00 | 34 | 1012.7 |
| 20260504172655 | 21 | 278 | 6.4 | 0.0 | 0.00 | 0.00 | 0.00 | 34 | 1012.7 |
| 20260504172556 | 21 | 264 | 6.4 | 0.0 | 0.00 | 0.00 | 0.00 | 34 | 1012.7 |
| 20260504172439 | 21 | 174 | 6.4 | 0.0 | 0.00 | 0.00 | 0.00 | 34 | 1012.7 |
| 20260504172340 | 21 | 155 | 6.4 | 0.0 | 0.00 | 0.00 | 0.00 | 34 | 1012.7 |
| 20260504172301 | 21 | 251 | 6.4 | 0.0 | 0.00 | 0.00 | 0.00 | 35 | 1012.7 |
| 20260504172141 | 21 | 222 | 8.0 | 0.0 | 0.00 | 0.00 | 0.00 | 34 | 1012.7 |
| 20260504172040 | 21 | 176 | 8.0 | 0.0 | 0.00 | 0.00 | 0.00 | 35 | 1012.7 |
| 20260504171941 | 21 | 176 | 8.0 | 0.0 | 0.00 | 0.00 | 0.00 | 35 | 1012.7 |
| 20260504171839 | 21 | 223 | 8.0 | 0.0 | 0.00 | 0.00 | 0.00 | 35 | 1012.7 |
| 20260504171745 | 21 | 175 | 8.0 | 0.0 | 0.00 | 0.00 | 0.00 | 35 | 1012.7 |
| 20260504171643 | 21 | 138 | 9.7 | 0.0 | 0.00 | 0.00 | 0.00 | 35 | 1012.7 |
| 20260504171545 | 21 | 182 | 8.0 | 0.0 | 0.00 | 0.00 | 0.00 | 35 | 1012.7 |
| 20260504171425 | 21 | 163 | 8.0 | 0.0 | 0.00 | 0.00 | 0.00 | 35 | 1012.7 |
| 20260504171326 | 21 | 227 | 8.0 | 0.0 | 0.00 | 0.00 | 0.00 | 35 | 1012.8 |
| 20260504171247 | 21 | 191 | 8.0 | 0.0 | 0.00 | 0.00 | 0.00 | 35 | 1012.8 |
| 20260504171207 | 21 | 194 | 8.0 | 0.0 | 0.00 | 0.00 | 0.00 | 35 | 1012.8 |
| 20260504171028 | 21 | 198 | 6.4 | 0.0 | 0.00 | 0.00 | 0.00 | 35 | 1012.8 |
| 20260504170927 | 21 | 201 | 6.4 | 0.0 | 0.00 | 0.00 | 0.00 | 35 | 1012.8 |
| 20260504170825 | 21 | 203 | 6.4 | 0.0 | 0.00 | 0.00 | 0.00 | 35 | 1012.8 |
| 20260504170746 | 21 | 263 | 6.4 | 0.0 | 0.00 | 0.00 | 0.00 | 35 | 1012.8 |
| 20260504170643 | 21 | 261 | 6.4 | 0.0 | 0.00 | 0.00 | 0.00 | 35 | 1012.8 |
| 20260504170545 | 21 | 220 | 6.4 | 0.0 | 0.00 | 0.00 | 0.00 | 35 | 1012.8 |
| 20260504170426 | 21 | 228 | 8.0 | 0.0 | 0.00 | 0.00 | 0.00 | 35 | 1012.8 |
| 20260504170349 | 21 | 165 | 8.0 | 0.0 | 0.00 | 0.00 | 0.00 | 35 | 1012.8 |
| 20260504170226 | 21 | 176 | 8.0 | 0.0 | 0.00 | 0.00 | 0.00 | 35 | 1012.8 |
| 20260504170148 | 21 | 284 | 8.0 | 0.0 | 0.00 | 0.00 | 0.00 | 35 | 1012.8 |
| 20260504160336 | 19 | 220 | 6.4 | 0.0 | 0.00 | 0.00 | 0.00 | 38 | 1013.8 |
| 20260504160239 | 19 | 217 | 6.4 | 0.0 | 0.00 | 0.00 | 0.00 | 39 | 1013.8 |
| 20260504160140 | 19 | 166 | 8.0 | 0.0 | 0.00 | 0.00 | 0.00 | 39 | 1013.8 |
| 20260504151135 | 18 | 194 | 6.4 | 0.0 | 0.00 | 0.00 | 0.00 | 43 | 1014.3 |
| 20260504151057 | 18 | 149 | 6.4 | 0.0 | 0.00 | 0.00 | 0.00 | 43 | 1014.3 |
| 20260504150956 | 18 | 168 | 4.8 | 0.0 | 0.00 | 0.00 | 0.00 | 43 | 1014.3 |
| 20260504150834 | 18 | 174 | 6.4 | 0.0 | 0.00 | 0.00 | 0.00 | 43 | 1014.3 |
| 20260504150735 | 18 | 189 | 4.8 | 0.0 | 0.00 | 0.00 | 0.00 | 44 | 1014.3 |
| 20260504150638 | 18 | 184 | 4.8 | 0.0 | 0.00 | 0.00 | 0.00 | 44 | 1014.3 |
| 20260504150539 | 18 | 164 | 3.2 | 0.0 | 0.00 | 0.00 | 0.00 | 44 | 1014.3 |
| 20260504150441 | 18 | 209 | 3.2 | 0.0 | 0.00 | 0.00 | 0.00 | 44 | 1014.3 |
| 20260504150405 | 18 | 235 | 4.8 | 0.0 | 0.00 | 0.00 | 0.00 | 45 | 1014.3 |
| 20260504150242 | 18 | 177 | 4.8 | 0.0 | 0.00 | 0.00 | 0.00 | 45 | 1014.3 |
| 20260504150144 | 18 | 138 | 6.4 | 0.0 | 0.00 | 0.00 | 0.00 | 45 | 1014.3 |
| 20260504141332 | 17 | 189 | 9.7 | 0.0 | 0.00 | 0.00 | 0.00 | 47 | 1014.5 |
| 20260504141233 | 17 | 205 | 9.7 | 0.0 | 0.00 | 0.00 | 0.00 | 47 | 1014.5 |
| 20260504141136 | 17 | 112 | 9.7 | 0.0 | 0.00 | 0.00 | 0.00 | 47 | 1014.5 |
| 20260504141038 | 17 | 185 | 8.0 | 0.0 | 0.00 | 0.00 | 0.00 | 47 | 1014.5 |
| 20260504140939 | 17 | 188 | 9.7 | 0.0 | 0.00 | 0.00 | 0.00 | 47 | 1014.5 |
| 20260504140835 | 17 | 203 | 9.7 | 0.0 | 0.00 | 0.00 | 0.00 | 47 | 1014.5 |
| 20260504140737 | 17 | 170 | 9.7 | 0.0 | 0.00 | 0.00 | 0.00 | 47 | 1014.5 |
| 20260504140634 | 17 | 186 | 9.7 | 0.0 | 0.00 | 0.00 | 0.00 | 47 | 1014.5 |
| 20260504140537 | 17 | 204 | 8.0 | 0.0 | 0.00 | 0.00 | 0.00 | 48 | 1014.5 |
| 20260504140438 | 17 | 230 | 8.0 | 0.0 | 0.00 | 0.00 | 0.00 | 49 | 1014.5 |
| 20260504140339 | 17 | 217 | 8.0 | 0.0 | 0.00 | 0.00 | 0.00 | 49 | 1014.5 |
| 20260504140304 | 16 | 207 | 8.0 | 0.0 | 0.00 | 0.00 | 0.00 | 49 | 1014.5 |
| 20260504140144 | 16 | 168 | 9.7 | 0.0 | 0.00 | 0.00 | 0.00 | 48 | 1014.5 |
| 20260504140106 | 16 | 165 | 8.0 | 0.0 | 0.00 | 0.00 | 0.00 | 48 | 1014.5 |
| 20260504130732 | 15 | 178 | 9.7 | 0.0 | 0.00 | 0.00 | 0.00 | 55 | 1015.3 |
| 20260504130630 | 15 | 171 | 9.7 | 0.0 | 0.00 | 0.00 | 0.00 | 56 | 1015.3 |
| 20260504130534 | 15 | 177 | 11.3 | 0.0 | 0.00 | 0.00 | 0.00 | 56 | 1015.3 |
| 20260504130431 | 15 | 178 | 11.3 | 0.0 | 0.00 | 0.00 | 0.00 | 56 | 1015.3 |
| 20260504130331 | 15 | 211 | 11.3 | 0.0 | 0.00 | 0.00 | 0.00 | 55 | 1015.3 |
| 20260504130250 | 15 | 250 | 9.7 | 0.0 | 0.00 | 0.00 | 0.00 | 56 | 1015.3 |
| 20260504130137 | 15 | 170 | 9.7 | 0.0 | 0.00 | 0.00 | 0.00 | 56 | 1015.3 |
| 20260504120224 | 13 | 217 | 6.4 | 0.0 | 0.00 | 0.00 | 0.00 | 67 | 1015.4 |
| 20260504120130 | 13 | 209 | 6.4 | 0.0 | 0.00 | 0.00 | 0.00 | 67 | 1015.4 |
| 20260504110629 | 10 | 178 | 0.0 | 0.0 | 0.00 | 0.00 | 0.00 | 70 | 1015.8 |
| 20260504110552 | 10 | 178 | 0.0 | 0.0 | 0.00 | 0.00 | 0.00 | 70 | 1015.8 |
| 20260504110427 | 10 | 177 | 0.0 | 0.0 | 0.00 | 0.00 | 0.00 | 70 | 1015.8 |
| 20260504110328 | 10 | 172 | 0.0 | 0.0 | 0.00 | 0.00 | 0.00 | 70 | 1015.8 |
| 20260504110230 | 10 | 171 | 0.0 | 0.0 | 0.00 | 0.00 | 0.00 | 70 | 1015.8 |
| 20260504110131 | 10 | 168 | 0.0 | 0.0 | 0.00 | 0.00 | 0.00 | 70 | 1015.8 |
| 20260504100556 | 8 | 172 | 0.0 | 0.0 | 0.00 | 0.00 | 0.00 | 72 | 1015.6 |
| 20260504100455 | 8 | 172 | 0.0 | 0.0 | 0.00 | 0.00 | 0.00 | 72 | 1015.6 |
| 20260504100336 | 8 | 172 | 0.0 | 0.0 | 0.00 | 0.00 | 0.00 | 72 | 1015.6 |
| 20260504100242 | 8 | 171 | 0.0 | 0.0 | 0.00 | 0.00 | 0.00 | 72 | 1015.6 |
| 20260504100204 | 8 | 171 | 0.0 | 0.0 | 0.00 | 0.00 | 0.00 | 72 | 1015.6 |
| 20260504090142 | 8 | 172 | 0.0 | 0.0 | 0.00 | 0.00 | 0.00 | 69 | 1015.3 |
| 20260504081935 | 8 | 165 | 0.0 | 0.0 | 0.00 | 0.00 | 0.00 | 63 | 1015.3 |
| 20260504081841 | 8 | 165 | 0.0 | 0.0 | 0.00 | 0.00 | 0.00 | 63 | 1015.3 |
| 20260504081802 | 8 | 165 | 0.0 | 0.0 | 0.00 | 0.00 | 0.00 | 63 | 1015.3 |
| 20260504081643 | 8 | 167 | 0.0 | 0.0 | 0.00 | 0.00 | 0.00 | 63 | 1015.3 |
| 20260504081527 | 8 | 172 | 0.0 | 0.0 | 0.00 | 0.00 | 0.00 | 63 | 1015.3 |
| 20260504081428 | 8 | 174 | 1.6 | 0.0 | 0.00 | 0.00 | 0.00 | 63 | 1015.3 |
| 20260504081333 | 8 | 166 | 1.6 | 0.0 | 0.00 | 0.00 | 0.00 | 62 | 1015.3 |
| 20260504081252 | 8 | 165 | 1.6 | 0.0 | 0.00 | 0.00 | 0.00 | 62 | 1015.3 |
| 20260504081131 | 8 | 164 | 1.6 | 0.0 | 0.00 | 0.00 | 0.00 | 62 | 1015.3 |
| 20260504081030 | 8 | 174 | 1.6 | 0.0 | 0.00 | 0.00 | 0.00 | 62 | 1015.3 |
| 20260504080929 | 8 | 174 | 1.6 | 0.0 | 0.00 | 0.00 | 0.00 | 62 | 1015.3 |
| 20260504080852 | 8 | 174 | 0.0 | 0.0 | 0.00 | 0.00 | 0.00 | 62 | 1015.3 |
| 20260504080732 | 8 | 155 | 0.0 | 0.0 | 0.00 | 0.00 | 0.00 | 62 | 1015.3 |
| 20260504080635 | 8 | 162 | 0.0 | 0.0 | 0.00 | 0.00 | 0.00 | 62 | 1015.3 |
| 20260504080538 | 8 | 190 | 0.0 | 0.0 | 0.00 | 0.00 | 0.00 | 61 | 1015.3 |
| 20260504080435 | 8 | 185 | 0.0 | 0.0 | 0.00 | 0.00 | 0.00 | 61 | 1015.3 |
| 20260504080340 | 8 | 180 | 0.0 | 0.0 | 0.00 | 0.00 | 0.00 | 61 | 1015.3 |
| 20260504080238 | 8 | 178 | 0.0 | 0.0 | 0.00 | 0.00 | 0.00 | 61 | 1015.3 |
| 20260504080139 | 8 | 179 | 0.0 | 0.0 | 0.00 | 0.00 | 0.00 | 60 | 1015.3 |
| 20260504070358 | 8 | 203 | 0.0 | 0.0 | 0.00 | 0.00 | 0.00 | 60 | 1014.9 |
| 20260504070239 | 8 | 203 | 0.0 | 0.0 | 0.00 | 0.00 | 0.00 | 60 | 1014.9 |
| 20260504070140 | 8 | 203 | 0.0 | 0.0 | 0.00 | 0.00 | 0.00 | 60 | 1014.9 |
| 20260504060133 | 9 | 199 | 0.0 | 0.0 | 0.00 | 0.00 | 0.00 | 57 | 1014.8 |
| 20260504050734 | 10 | 181 | 0.0 | 0.0 | 0.00 | 0.00 | 0.00 | 55 | 1014.7 |
| 20260504050631 | 10 | 204 | 0.0 | 0.0 | 0.00 | 0.00 | 0.00 | 55 | 1014.7 |
| 20260504050537 | 10 | 205 | 0.0 | 0.0 | 0.00 | 0.00 | 0.00 | 55 | 1014.7 |
| 20260504050441 | 10 | 205 | 0.0 | 0.0 | 0.00 | 0.00 | 0.00 | 55 | 1014.7 |
| 20260504050402 | 10 | 205 | 0.0 | 0.0 | 0.00 | 0.00 | 0.00 | 55 | 1014.7 |
| 20260504050224 | 10 | 188 | 0.0 | 0.0 | 0.00 | 0.00 | 0.00 | 55 | 1014.7 |
| 20260504050125 | 10 | 189 | 0.0 | 0.0 | 0.00 | 0.00 | 0.00 | 56 | 1014.7 |
| 20260504045932 | 10 | 207 | 0.0 | 0.0 | 0.00 | 0.00 | 0.00 | 55 | 1014.7 |
| 20260504045834 | 10 | 208 | 0.0 | 0.0 | 0.00 | 0.00 | 0.00 | 55 | 1014.6 |
| 20260504045736 | 10 | 207 | 0.0 | 0.0 | 0.00 | 0.00 | 0.00 | 55 | 1014.6 |
| 20260504045633 | 10 | 207 | 0.0 | 0.0 | 0.00 | 0.00 | 0.00 | 55 | 1014.6 |
| 20260504045534 | 10 | 208 | 0.0 | 0.0 | 0.00 | 0.00 | 0.00 | 55 | 1014.6 |
| 20260504045432 | 10 | 201 | 0.0 | 0.0 | 0.00 | 0.00 | 0.00 | 55 | 1014.6 |
| 20260504045333 | 10 | 175 | 0.0 | 0.0 | 0.00 | 0.00 | 0.00 | 55 | 1014.6 |
| 20260504045236 | 10 | 174 | 0.0 | 0.0 | 0.00 | 0.00 | 0.00 | 55 | 1014.6 |
| 20260504045138 | 10 | 179 | 0.0 | 0.0 | 0.00 | 0.00 | 0.00 | 55 | 1014.6 |
| 20260504045036 | 10 | 199 | 0.0 | 0.0 | 0.00 | 0.00 | 0.00 | 56 | 1014.6 |
| 20260504044937 | 10 | 190 | 0.0 | 0.0 | 0.00 | 0.00 | 0.00 | 56 | 1014.6 |
| 20260504044838 | 10 | 190 | 0.0 | 0.0 | 0.00 | 0.00 | 0.00 | 56 | 1014.6 |
| 20260504044758 | 10 | 190 | 0.0 | 0.0 | 0.00 | 0.00 | 0.00 | 56 | 1014.6 |
| 20260504044639 | 10 | 190 | 0.0 | 0.0 | 0.00 | 0.00 | 0.00 | 56 | 1014.6 |
| 20260504044546 | 10 | 190 | 0.0 | 0.0 | 0.00 | 0.00 | 0.00 | 55 | 1014.6 |
| 20260504044443 | 10 | 190 | 0.0 | 0.0 | 0.00 | 0.00 | 0.00 | 56 | 1014.6 |
| 20260504044344 | 10 | 190 | 0.0 | 0.0 | 0.00 | 0.00 | 0.00 | 56 | 1014.3 |
| 20260504044225 | 10 | 190 | 0.0 | 0.0 | 0.00 | 0.00 | 0.00 | 55 | 1014.3 |
| 20260504044126 | 10 | 190 | 0.0 | 0.0 | 0.00 | 0.00 | 0.00 | 55 | 1014.3 |
| 20260504044029 | 10 | 190 | 0.0 | 0.0 | 0.00 | 0.00 | 0.00 | 55 | 1014.3 |
| 20260504043933 | 10 | 190 | 0.0 | 0.0 | 0.00 | 0.00 | 0.00 | 55 | 1014.3 |
| 20260504043831 | 10 | 190 | 0.0 | 0.0 | 0.00 | 0.00 | 0.00 | 55 | 1014.3 |
| 20260504043734 | 10 | 190 | 0.0 | 0.0 | 0.00 | 0.00 | 0.00 | 55 | 1014.3 |
| 20260504043632 | 10 | 190 | 0.0 | 0.0 | 0.00 | 0.00 | 0.00 | 55 | 1014.3 |
| 20260504043534 | 10 | 190 | 0.0 | 0.0 | 0.00 | 0.00 | 0.00 | 55 | 1014.3 |
| 20260504043435 | 10 | 159 | 0.0 | 0.0 | 0.00 | 0.00 | 0.00 | 55 | 1014.3 |
| 20260504043340 | 10 | 159 | 0.0 | 0.0 | 0.00 | 0.00 | 0.00 | 55 | 1014.3 |
| 20260504043302 | 10 | 159 | 0.0 | 0.0 | 0.00 | 0.00 | 0.00 | 55 | 1014.3 |
| 20260504043203 | 10 | 159 | 0.0 | 0.0 | 0.00 | 0.00 | 0.00 | 55 | 1014.3 |
| 20260504043041 | 10 | 159 | 0.0 | 0.0 | 0.00 | 0.00 | 0.00 | 55 | 1014.3 |
| 20260504042942 | 10 | 159 | 0.0 | 0.0 | 0.00 | 0.00 | 0.00 | 55 | 1014.3 |
| 20260504042903 | 10 | 159 | 0.0 | 0.0 | 0.00 | 0.00 | 0.00 | 55 | 1014.2 |
| 20260504042743 | 10 | 159 | 0.0 | 0.0 | 0.00 | 0.00 | 0.00 | 55 | 1014.2 |
| 20260504042641 | 10 | 159 | 0.0 | 0.0 | 0.00 | 0.00 | 0.00 | 55 | 1014.2 |
| 20260504042527 | 10 | 159 | 0.0 | 0.0 | 0.00 | 0.00 | 0.00 | 55 | 1014.2 |
| 20260504042428 | 10 | 159 | 0.0 | 0.0 | 0.00 | 0.00 | 0.00 | 55 | 1014.2 |
| 20260504042349 | 10 | 159 | 0.0 | 0.0 | 0.00 | 0.00 | 0.00 | 55 | 1014.2 |
| 20260504042226 | 10 | 159 | 0.0 | 0.0 | 0.00 | 0.00 | 0.00 | 55 | 1014.2 |
| 20260504042127 | 10 | 159 | 0.0 | 0.0 | 0.00 | 0.00 | 0.00 | 55 | 1014.2 |
| 20260504042031 | 10 | 159 | 0.0 | 0.0 | 0.00 | 0.00 | 0.00 | 55 | 1014.2 |
| 20260504041931 | 10 | 159 | 0.0 | 0.0 | 0.00 | 0.00 | 0.00 | 55 | 1014.2 |
| 20260504041834 | 10 | 159 | 0.0 | 0.0 | 0.00 | 0.00 | 0.00 | 55 | 1014.2 |
| 20260504041736 | 10 | 159 | 0.0 | 0.0 | 0.00 | 0.00 | 0.00 | 55 | 1014.2 |
| 20260504041634 | 10 | 159 | 0.0 | 0.0 | 0.00 | 0.00 | 0.00 | 54 | 1014.2 |
| 20260504041536 | 10 | 159 | 0.0 | 0.0 | 0.00 | 0.00 | 0.00 | 55 | 1014.2 |
| 20260504041436 | 10 | 159 | 0.0 | 0.0 | 0.00 | 0.00 | 0.00 | 54 | 1014.2 |
| 20260504041359 | 10 | 159 | 0.0 | 0.0 | 0.00 | 0.00 | 0.00 | 54 | 1014.2 |
| 20260504041238 | 10 | 159 | 0.0 | 0.0 | 0.00 | 0.00 | 0.00 | 54 | 1014.2 |
| 20260504041204 | 10 | 159 | 0.0 | 0.0 | 0.00 | 0.00 | 0.00 | 54 | 1014.2 |
| 20260504041045 | 10 | 159 | 0.0 | 0.0 | 0.00 | 0.00 | 0.00 | 54 | 1014.2 |
| 20260504040926 | 10 | 159 | 0.0 | 0.0 | 0.00 | 0.00 | 0.00 | 54 | 1014.2 |
| 20260504040828 | 10 | 159 | 0.0 | 0.0 | 0.00 | 0.00 | 0.00 | 54 | 1014.2 |
| 20260504040730 | 10 | 159 | 0.0 | 0.0 | 0.00 | 0.00 | 0.00 | 54 | 1014.2 |
| 20260504040631 | 10 | 159 | 0.0 | 0.0 | 0.00 | 0.00 | 0.00 | 54 | 1014.2 |
| 20260504040551 | 10 | 159 | 0.0 | 0.0 | 0.00 | 0.00 | 0.00 | 54 | 1014.2 |
| 20260504040438 | 10 | 159 | 0.0 | 0.0 | 0.00 | 0.00 | 0.00 | 53 | 1014.2 |
| 20260504040342 | 10 | 159 | 0.0 | 0.0 | 0.00 | 0.00 | 0.00 | 53 | 1014.2 |
| 20260504040224 | 10 | 159 | 0.0 | 0.0 | 0.00 | 0.00 | 0.00 | 54 | 1014.2 |
| 20260504040147 | 10 | 159 | 0.0 | 0.0 | 0.00 | 0.00 | 0.00 | 53 | 1014.2 |
| 20260504040044 | 10 | 159 | 0.0 | 0.0 | 0.00 | 0.00 | 0.00 | 53 | 1014.2 |
| 20260504035930 | 10 | 159 | 0.0 | 0.0 | 0.00 | 0.00 | 0.00 | 53 | 1014.2 |
| 20260504035851 | 10 | 159 | 0.0 | 0.0 | 0.00 | 0.00 | 0.00 | 53 | 1014.0 |
| 20260504035730 | 10 | 159 | 0.0 | 0.0 | 0.00 | 0.00 | 0.00 | 53 | 1014.0 |
| 20260504035628 | 10 | 159 | 0.0 | 0.0 | 0.00 | 0.00 | 0.00 | 53 | 1014.0 |
| 20260504035531 | 10 | 159 | 0.0 | 0.0 | 0.00 | 0.00 | 0.00 | 53 | 1014.0 |
| 20260504035428 | 10 | 159 | 0.0 | 0.0 | 0.00 | 0.00 | 0.00 | 52 | 1014.0 |
| 20260504035351 | 10 | 159 | 0.0 | 0.0 | 0.00 | 0.00 | 0.00 | 53 | 1014.0 |
| 20260504035247 | 10 | 159 | 0.0 | 0.0 | 0.00 | 0.00 | 0.00 | 52 | 1014.0 |
| 20260504035133 | 10 | 159 | 0.0 | 0.0 | 0.00 | 0.00 | 0.00 | 52 | 1014.0 |
| 20260504035032 | 10 | 159 | 0.0 | 0.0 | 0.00 | 0.00 | 0.00 | 52 | 1014.0 |
| 20260504034931 | 10 | 159 | 0.0 | 0.0 | 0.00 | 0.00 | 0.00 | 52 | 1014.0 |
| 20260504034832 | 10 | 159 | 0.0 | 0.0 | 0.00 | 0.00 | 0.00 | 52 | 1014.0 |
| 20260504034734 | 10 | 159 | 0.0 | 0.0 | 0.00 | 0.00 | 0.00 | 52 | 1014.0 |
| 20260504034633 | 10 | 159 | 0.0 | 0.0 | 0.00 | 0.00 | 0.00 | 52 | 1014.0 |
| 20260504034535 | 10 | 159 | 0.0 | 0.0 | 0.00 | 0.00 | 0.00 | 52 | 1014.0 |
| 20260504034455 | 10 | 159 | 0.0 | 0.0 | 0.00 | 0.00 | 0.00 | 52 | 1014.0 |
| 20260504034335 | 10 | 159 | 0.0 | 0.0 | 0.00 | 0.00 | 0.00 | 52 | 1014.0 |
| 20260504034233 | 10 | 159 | 0.0 | 0.0 | 0.00 | 0.00 | 0.00 | 51 | 1014.0 |
| 20260504034135 | 10 | 159 | 0.0 | 0.0 | 0.00 | 0.00 | 0.00 | 51 | 1014.0 |
| 20260504034038 | 10 | 158 | 0.0 | 0.0 | 0.00 | 0.00 | 0.00 | 52 | 1014.0 |
| 20260504033938 | 10 | 158 | 0.0 | 0.0 | 0.00 | 0.00 | 0.00 | 52 | 1014.0 |
| 20260504033836 | 10 | 158 | 0.0 | 0.0 | 0.00 | 0.00 | 0.00 | 52 | 1014.0 |
| 20260504033742 | 10 | 158 | 0.0 | 0.0 | 0.00 | 0.00 | 0.00 | 51 | 1014.0 |
| 20260504033643 | 11 | 158 | 0.0 | 0.0 | 0.00 | 0.00 | 0.00 | 51 | 1014.0 |
| 20260504033546 | 10 | 158 | 0.0 | 0.0 | 0.00 | 0.00 | 0.00 | 51 | 1014.0 |
| 20260504033423 | 11 | 158 | 0.0 | 0.0 | 0.00 | 0.00 | 0.00 | 51 | 1014.0 |
| 20260504033325 | 11 | 158 | 0.0 | 0.0 | 0.00 | 0.00 | 0.00 | 51 | 1014.0 |
| 20260504033227 | 11 | 158 | 0.0 | 0.0 | 0.00 | 0.00 | 0.00 | 51 | 1014.0 |
| 20260504033132 | 11 | 158 | 0.0 | 0.0 | 0.00 | 0.00 | 0.00 | 50 | 1014.0 |
| 20260504033058 | 11 | 158 | 0.0 | 0.0 | 0.00 | 0.00 | 0.00 | 50 | 1014.0 |
| 20260504032939 | 11 | 157 | 0.0 | 0.0 | 0.00 | 0.00 | 0.00 | 50 | 1014.0 |
| 20260504032839 | 11 | 185 | 0.0 | 0.0 | 0.00 | 0.00 | 0.00 | 51 | 1013.8 |
| 20260504032742 | 11 | 185 | 0.0 | 0.0 | 0.00 | 0.00 | 0.00 | 50 | 1013.8 |
| 20260504032643 | 11 | 186 | 0.0 | 0.0 | 0.00 | 0.00 | 0.00 | 50 | 1013.8 |
| 20260504032605 | 11 | 186 | 0.0 | 0.0 | 0.00 | 0.00 | 0.00 | 50 | 1013.8 |
| 20260504032428 | 11 | 186 | 0.0 | 0.0 | 0.00 | 0.00 | 0.00 | 50 | 1013.8 |
| 20260504032349 | 11 | 186 | 0.0 | 0.0 | 0.00 | 0.00 | 0.00 | 50 | 1013.8 |
| 20260504032225 | 11 | 186 | 0.0 | 0.0 | 0.00 | 0.00 | 0.00 | 50 | 1013.8 |
| 20260504032127 | 11 | 186 | 0.0 | 0.0 | 0.00 | 0.00 | 0.00 | 50 | 1013.8 |
| 20260504032026 | 11 | 185 | 0.0 | 0.0 | 0.00 | 0.00 | 0.00 | 50 | 1013.8 |
| 20260504031929 | 11 | 186 | 0.0 | 0.0 | 0.00 | 0.00 | 0.00 | 50 | 1013.8 |
| 20260504031847 | 11 | 185 | 0.0 | 0.0 | 0.00 | 0.00 | 0.00 | 50 | 1013.8 |
| 20260504031748 | 11 | 185 | 0.0 | 0.0 | 0.00 | 0.00 | 0.00 | 49 | 1013.8 |
| 20260504031630 | 11 | 186 | 0.0 | 0.0 | 0.00 | 0.00 | 0.00 | 49 | 1013.8 |
| 20260504031533 | 11 | 185 | 0.0 | 0.0 | 0.00 | 0.00 | 0.00 | 49 | 1013.8 |
| 20260504031430 | 11 | 185 | 0.0 | 0.0 | 0.00 | 0.00 | 0.00 | 49 | 1013.8 |
| 20260504031331 | 11 | 186 | 0.0 | 0.0 | 0.00 | 0.00 | 0.00 | 49 | 1013.8 |
| 20260504031252 | 11 | 186 | 0.0 | 0.0 | 0.00 | 0.00 | 0.00 | 49 | 1013.8 |
| 20260504031153 | 11 | 185 | 0.0 | 0.0 | 0.00 | 0.00 | 0.00 | 49 | 1013.8 |
| 20260504031052 | 11 | 185 | 0.0 | 0.0 | 0.00 | 0.00 | 0.00 | 49 | 1013.8 |
| 20260504030931 | 11 | 185 | 0.0 | 0.0 | 0.00 | 0.00 | 0.00 | 49 | 1013.8 |
| 20260504030837 | 11 | 185 | 0.0 | 0.0 | 0.00 | 0.00 | 0.00 | 49 | 1013.8 |
| 20260504030742 | 11 | 185 | 0.0 | 0.0 | 0.00 | 0.00 | 0.00 | 49 | 1013.8 |
| 20260504030643 | 11 | 185 | 0.0 | 0.0 | 0.00 | 0.00 | 0.00 | 49 | 1013.8 |
| 20260504030526 | 11 | 185 | 0.0 | 0.0 | 0.00 | 0.00 | 0.00 | 49 | 1013.8 |
| 20260504030425 | 11 | 185 | 0.0 | 0.0 | 0.00 | 0.00 | 0.00 | 48 | 1013.8 |
| 20260504030327 | 11 | 185 | 0.0 | 0.0 | 0.00 | 0.00 | 0.00 | 48 | 1013.8 |
| 20260504030229 | 11 | 186 | 0.0 | 0.0 | 0.00 | 0.00 | 0.00 | 48 | 1013.8 |
| 20260504030131 | 11 | 186 | 0.0 | 0.0 | 0.00 | 0.00 | 0.00 | 49 | 1013.8 |
| 20260504030033 | 11 | 186 | 0.0 | 0.0 | 0.00 | 0.00 | 0.00 | 48 | 1013.8 |
| 20260504025936 | 11 | 186 | 0.0 | 0.0 | 0.00 | 0.00 | 0.00 | 48 | 1013.8 |
| 20260504025834 | 11 | 186 | 0.0 | 0.0 | 0.00 | 0.00 | 0.00 | 48 | 1013.8 |
| 20260504025736 | 11 | 186 | 0.0 | 0.0 | 0.00 | 0.00 | 0.00 | 48 | 1013.8 |
| 20260504025637 | 11 | 188 | 0.0 | 0.0 | 0.00 | 0.00 | 0.00 | 48 | 1013.8 |
| 20260504025539 | 11 | 187 | 0.0 | 0.0 | 0.00 | 0.00 | 0.00 | 49 | 1013.8 |
| 20260504025437 | 11 | 186 | 0.0 | 0.0 | 0.00 | 0.00 | 0.00 | 48 | 1013.8 |
| 20260504025338 | 11 | 186 | 0.0 | 0.0 | 0.00 | 0.00 | 0.00 | 48 | 1013.8 |
| 20260504025236 | 11 | 186 | 0.0 | 0.0 | 0.00 | 0.00 | 0.00 | 48 | 1013.8 |
| 20260504025137 | 11 | 187 | 0.0 | 0.0 | 0.00 | 0.00 | 0.00 | 48 | 1013.8 |
| 20260504025040 | 11 | 187 | 0.0 | 0.0 | 0.00 | 0.00 | 0.00 | 48 | 1013.8 |
| 20260504025005 | 11 | 187 | 0.0 | 0.0 | 0.00 | 0.00 | 0.00 | 48 | 1013.8 |
| 20260504024842 | 11 | 187 | 0.0 | 0.0 | 0.00 | 0.00 | 0.00 | 49 | 1013.8 |
| 20260504024743 | 11 | 187 | 0.0 | 0.0 | 0.00 | 0.00 | 0.00 | 48 | 1013.8 |
| 20260504024642 | 11 | 187 | 0.0 | 0.0 | 0.00 | 0.00 | 0.00 | 48 | 1013.8 |
| 20260504024544 | 11 | 187 | 0.0 | 0.0 | 0.00 | 0.00 | 0.00 | 48 | 1013.8 |
| 20260504024440 | 11 | 187 | 0.0 | 0.0 | 0.00 | 0.00 | 0.00 | 48 | 1013.8 |
| 20260504024342 | 11 | 187 | 0.0 | 0.0 | 0.00 | 0.00 | 0.00 | 48 | 1013.9 |
| 20260504024224 | 11 | 187 | 0.0 | 0.0 | 0.00 | 0.00 | 0.00 | 48 | 1013.9 |
| 20260504024126 | 11 | 187 | 0.0 | 0.0 | 0.00 | 0.00 | 0.00 | 47 | 1013.9 |
| 20260504024048 | 11 | 187 | 0.0 | 0.0 | 0.00 | 0.00 | 0.00 | 47 | 1013.9 |
| 20260504023930 | 11 | 188 | 0.0 | 0.0 | 0.00 | 0.00 | 0.00 | 48 | 1013.9 |
| 20260504023828 | 11 | 188 | 0.0 | 0.0 | 0.00 | 0.00 | 0.00 | 48 | 1013.9 |
| 20260504023729 | 11 | 188 | 0.0 | 0.0 | 0.00 | 0.00 | 0.00 | 47 | 1013.9 |
| 20260504023635 | 11 | 188 | 0.0 | 0.0 | 0.00 | 0.00 | 0.00 | 48 | 1013.9 |
| 20260504023557 | 11 | 188 | 0.0 | 0.0 | 0.00 | 0.00 | 0.00 | 48 | 1013.9 |
| 20260504023434 | 11 | 188 | 0.0 | 0.0 | 0.00 | 0.00 | 0.00 | 47 | 1013.9 |
| 20260504023335 | 11 | 188 | 0.0 | 0.0 | 0.00 | 0.00 | 0.00 | 47 | 1013.9 |
| 20260504023233 | 11 | 188 | 0.0 | 0.0 | 0.00 | 0.00 | 0.00 | 47 | 1013.9 |
| 20260504023135 | 11 | 188 | 0.0 | 0.0 | 0.00 | 0.00 | 0.00 | 47 | 1013.9 |
| 20260504023032 | 11 | 206 | 0.0 | 0.0 | 0.00 | 0.00 | 0.00 | 47 | 1013.9 |
| 20260504022937 | 11 | 199 | 0.0 | 0.0 | 0.00 | 0.00 | 0.00 | 47 | 1013.9 |
| 20260504022837 | 11 | 198 | 0.0 | 0.0 | 0.00 | 0.00 | 0.00 | 47 | 1013.8 |
| 20260504022737 | 11 | 198 | 0.0 | 0.0 | 0.00 | 0.00 | 0.00 | 47 | 1013.8 |
| 20260504022635 | 11 | 197 | 0.0 | 0.0 | 0.00 | 0.00 | 0.00 | 47 | 1013.8 |
| 20260504022538 | 11 | 197 | 0.0 | 0.0 | 0.00 | 0.00 | 0.00 | 47 | 1013.8 |
| 20260504022434 | 11 | 197 | 0.0 | 0.0 | 0.00 | 0.00 | 0.00 | 47 | 1013.8 |
| 20260504022336 | 11 | 197 | 0.0 | 0.0 | 0.00 | 0.00 | 0.00 | 47 | 1013.8 |
| 20260504022301 | 11 | 197 | 0.0 | 0.0 | 0.00 | 0.00 | 0.00 | 47 | 1013.8 |
| 20260504022141 | 11 | 197 | 0.0 | 0.0 | 0.00 | 0.00 | 0.00 | 47 | 1013.8 |
| 20260504022039 | 11 | 199 | 0.0 | 0.0 | 0.00 | 0.00 | 0.00 | 47 | 1013.8 |
| 20260504021940 | 11 | 199 | 0.0 | 0.0 | 0.00 | 0.00 | 0.00 | 47 | 1013.8 |
| 20260504021842 | 11 | 199 | 0.0 | 0.0 | 0.00 | 0.00 | 0.00 | 47 | 1013.8 |
| 20260504021808 | 11 | 199 | 0.0 | 0.0 | 0.00 | 0.00 | 0.00 | 47 | 1013.8 |
| 20260504021644 | 11 | 244 | 0.0 | 0.0 | 0.00 | 0.00 | 0.00 | 47 | 1013.8 |
| 20260504021531 | 11 | 244 | 0.0 | 0.0 | 0.00 | 0.00 | 0.00 | 47 | 1013.8 |
| 20260504021447 | 11 | 244 | 0.0 | 0.0 | 0.00 | 0.00 | 0.00 | 47 | 1013.8 |
| 20260504021327 | 11 | 244 | 0.0 | 0.0 | 0.00 | 0.00 | 0.00 | 47 | 1013.7 |
| 20260504021230 | 11 | 244 | 0.0 | 0.0 | 0.00 | 0.00 | 0.00 | 47 | 1013.7 |
| 20260504021131 | 11 | 244 | 0.0 | 0.0 | 0.00 | 0.00 | 0.00 | 47 | 1013.7 |
| 20260504021033 | 11 | 244 | 0.0 | 0.0 | 0.00 | 0.00 | 0.00 | 47 | 1013.7 |
| 20260504020935 | 11 | 244 | 0.0 | 0.0 | 0.00 | 0.00 | 0.00 | 47 | 1013.7 |
| 20260504020836 | 11 | 244 | 0.0 | 0.0 | 0.00 | 0.00 | 0.00 | 46 | 1013.7 |
| 20260504020738 | 11 | 244 | 0.0 | 0.0 | 0.00 | 0.00 | 0.00 | 46 | 1013.7 |
| 20260504020637 | 12 | 244 | 0.0 | 0.0 | 0.00 | 0.00 | 0.00 | 47 | 1013.7 |
| 20260504020538 | 12 | 244 | 0.0 | 0.0 | 0.00 | 0.00 | 0.00 | 47 | 1013.7 |
| 20260504020455 | 12 | 244 | 0.0 | 0.0 | 0.00 | 0.00 | 0.00 | 46 | 1013.7 |
| 20260504020336 | 12 | 244 | 0.0 | 0.0 | 0.00 | 0.00 | 0.00 | 47 | 1013.7 |
| 20260504020301 | 12 | 244 | 0.0 | 0.0 | 0.00 | 0.00 | 0.00 | 46 | 1013.7 |
| 20260504020129 | 12 | 244 | 0.0 | 0.0 | 0.00 | 0.00 | 0.00 | 46 | 1013.7 |
| 20260504020028 | 12 | 244 | 0.0 | 0.0 | 0.00 | 0.00 | 0.00 | 47 | 1013.7 |
| 20260504015929 | 12 | 244 | 0.0 | 0.0 | 0.00 | 0.00 | 0.00 | 47 | 1013.7 |
| 20260504015827 | 12 | 244 | 0.0 | 0.0 | 0.00 | 0.00 | 0.00 | 46 | 1013.7 |
| 20260504015728 | 12 | 244 | 0.0 | 0.0 | 0.00 | 0.00 | 0.00 | 46 | 1013.7 |
| 20260504015629 | 12 | 244 | 0.0 | 0.0 | 0.00 | 0.00 | 0.00 | 45 | 1013.7 |
| 20260504015535 | 12 | 244 | 0.0 | 0.0 | 0.00 | 0.00 | 0.00 | 45 | 1013.7 |
| 20260504015434 | 12 | 244 | 0.0 | 0.0 | 0.00 | 0.00 | 0.00 | 45 | 1013.7 |
| 20260504015335 | 12 | 244 | 0.0 | 0.0 | 0.00 | 0.00 | 0.00 | 46 | 1013.7 |
| 20260504015253 | 12 | 244 | 0.0 | 0.0 | 0.00 | 0.00 | 0.00 | 45 | 1013.7 |
| 20260504015135 | 12 | 244 | 0.0 | 0.0 | 0.00 | 0.00 | 0.00 | 45 | 1013.7 |
| 20260504015033 | 12 | 244 | 0.0 | 0.0 | 0.00 | 0.00 | 0.00 | 44 | 1013.7 |
| 20260504014932 | 12 | 244 | 0.0 | 0.0 | 0.00 | 0.00 | 0.00 | 45 | 1013.7 |
| 20260504014834 | 12 | 244 | 0.0 | 0.0 | 0.00 | 0.00 | 0.00 | 45 | 1013.7 |
| 20260504014735 | 12 | 244 | 0.0 | 0.0 | 0.00 | 0.00 | 0.00 | 44 | 1013.7 |
| 20260504014636 | 12 | 244 | 0.0 | 0.0 | 0.00 | 0.00 | 0.00 | 44 | 1013.7 |
| 20260504014539 | 12 | 244 | 0.0 | 0.0 | 0.00 | 0.00 | 0.00 | 44 | 1013.7 |
| 20260504014434 | 12 | 244 | 0.0 | 0.0 | 0.00 | 0.00 | 0.00 | 44 | 1013.7 |
| 20260504014340 | 12 | 244 | 0.0 | 0.0 | 0.00 | 0.00 | 0.00 | 44 | 1013.6 |
| 20260504014301 | 12 | 244 | 0.0 | 0.0 | 0.00 | 0.00 | 0.00 | 44 | 1013.6 |
| 20260504014129 | 12 | 244 | 0.0 | 0.0 | 0.00 | 0.00 | 0.00 | 43 | 1013.6 |
| 20260504014026 | 12 | 244 | 0.0 | 0.0 | 0.00 | 0.00 | 0.00 | 43 | 1013.6 |
| 20260504013925 | 12 | 244 | 0.0 | 0.0 | 0.00 | 0.00 | 0.00 | 43 | 1013.6 |
| 20260504013827 | 12 | 244 | 0.0 | 0.0 | 0.00 | 0.00 | 0.00 | 44 | 1013.6 |
| 20260504013729 | 12 | 244 | 0.0 | 0.0 | 0.00 | 0.00 | 0.00 | 43 | 1013.6 |
| 20260504013626 | 12 | 244 | 0.0 | 0.0 | 0.00 | 0.00 | 0.00 | 43 | 1013.6 |
| 20260504013532 | 12 | 244 | 0.0 | 0.0 | 0.00 | 0.00 | 0.00 | 43 | 1013.6 |
| 20260504013430 | 12 | 244 | 0.0 | 0.0 | 0.00 | 0.00 | 0.00 | 43 | 1013.6 |
| 20260504013331 | 12 | 244 | 0.0 | 0.0 | 0.00 | 0.00 | 0.00 | 43 | 1013.6 |
| 20260504013229 | 12 | 244 | 0.0 | 0.0 | 0.00 | 0.00 | 0.00 | 43 | 1013.6 |
| 20260504013130 | 12 | 244 | 0.0 | 0.0 | 0.00 | 0.00 | 0.00 | 43 | 1013.6 |
| 20260504013029 | 12 | 244 | 0.0 | 0.0 | 0.00 | 0.00 | 0.00 | 43 | 1013.6 |
| 20260504012928 | 12 | 244 | 0.0 | 0.0 | 0.00 | 0.00 | 0.00 | 43 | 1013.6 |
| 20260504012831 | 12 | 244 | 0.0 | 0.0 | 0.00 | 0.00 | 0.00 | 43 | 1013.2 |
| 20260504012732 | 12 | 244 | 0.0 | 0.0 | 0.00 | 0.00 | 0.00 | 43 | 1013.2 |
| 20260504012631 | 12 | 244 | 0.0 | 0.0 | 0.00 | 0.00 | 0.00 | 43 | 1013.2 |
| 20260504012534 | 12 | 244 | 0.0 | 0.0 | 0.00 | 0.00 | 0.00 | 43 | 1013.2 |
| 20260504012431 | 12 | 244 | 0.0 | 0.0 | 0.00 | 0.00 | 0.00 | 43 | 1013.2 |
| 20260504012336 | 12 | 244 | 0.0 | 0.0 | 0.00 | 0.00 | 0.00 | 43 | 1013.2 |
| 20260504012254 | 12 | 244 | 0.0 | 0.0 | 0.00 | 0.00 | 0.00 | 42 | 1013.2 |
| 20260504012143 | 12 | 244 | 0.0 | 0.0 | 0.00 | 0.00 | 0.00 | 42 | 1013.2 |
| 20260504012045 | 12 | 244 | 0.0 | 0.0 | 0.00 | 0.00 | 0.00 | 42 | 1013.2 |
| 20260504011925 | 12 | 244 | 0.0 | 0.0 | 0.00 | 0.00 | 0.00 | 42 | 1013.2 |
| 20260504011827 | 12 | 244 | 0.0 | 0.0 | 0.00 | 0.00 | 0.00 | 42 | 1013.2 |
| 20260504011729 | 12 | 244 | 0.0 | 0.0 | 0.00 | 0.00 | 0.00 | 42 | 1013.2 |
| 20260504011627 | 12 | 244 | 0.0 | 0.0 | 0.00 | 0.00 | 0.00 | 42 | 1013.2 |
| 20260504011533 | 13 | 244 | 0.0 | 0.0 | 0.00 | 0.00 | 0.00 | 42 | 1013.2 |
| 20260504011437 | 13 | 244 | 0.0 | 0.0 | 0.00 | 0.00 | 0.00 | 42 | 1013.2 |
| 20260504011359 | 13 | 244 | 0.0 | 0.0 | 0.00 | 0.00 | 0.00 | 42 | 1013.1 |
| 20260504011239 | 13 | 244 | 0.0 | 0.0 | 0.00 | 0.00 | 0.00 | 41 | 1013.1 |
| 20260504011158 | 13 | 244 | 0.0 | 0.0 | 0.00 | 0.00 | 0.00 | 41 | 1013.1 |
| 20260504011059 | 13 | 244 | 0.0 | 0.0 | 0.00 | 0.00 | 0.00 | 41 | 1013.1 |
| 20260504010939 | 13 | 244 | 0.0 | 0.0 | 0.00 | 0.00 | 0.00 | 41 | 1013.1 |
| 20260504010837 | 13 | 244 | 0.0 | 0.0 | 0.00 | 0.00 | 0.00 | 41 | 1013.1 |
| 20260504010742 | 13 | 244 | 0.0 | 0.0 | 0.00 | 0.00 | 0.00 | 41 | 1013.1 |
| 20260504010643 | 13 | 244 | 0.0 | 0.0 | 0.00 | 0.00 | 0.00 | 41 | 1013.1 |
| 20260504010525 | 13 | 244 | 0.0 | 0.0 | 0.00 | 0.00 | 0.00 | 41 | 1013.1 |
| 20260504010446 | 13 | 244 | 0.0 | 0.0 | 0.00 | 0.00 | 0.00 | 41 | 1013.1 |
| 20260504010327 | 13 | 244 | 0.0 | 0.0 | 0.00 | 0.00 | 0.00 | 41 | 1013.1 |
| 20260504010226 | 13 | 244 | 0.0 | 0.0 | 0.00 | 0.00 | 0.00 | 41 | 1013.1 |
| 20260504010132 | 13 | 244 | 0.0 | 0.0 | 0.00 | 0.00 | 0.00 | 41 | 1013.1 |
| 20260504010031 | 13 | 244 | 0.0 | 0.0 | 0.00 | 0.00 | 0.00 | 41 | 1013.1 |
| 20260504005932 | 13 | 244 | 0.0 | 0.0 | 0.00 | 0.00 | 0.00 | 41 | 1013.1 |
| 20260504005830 | 13 | 244 | 0.0 | 0.0 | 0.00 | 0.00 | 0.00 | 40 | 1012.8 |
| 20260504005732 | 13 | 244 | 0.0 | 0.0 | 0.00 | 0.00 | 0.00 | 40 | 1012.8 |
| 20260504005650 | 13 | 244 | 0.0 | 0.0 | 0.00 | 0.00 | 0.00 | 41 | 1012.8 |
| 20260504005530 | 13 | 244 | 0.0 | 0.0 | 0.00 | 0.00 | 0.00 | 41 | 1012.8 |
| 20260504005433 | 13 | 244 | 0.0 | 0.0 | 0.00 | 0.00 | 0.00 | 40 | 1012.8 |
| 20260504005334 | 13 | 244 | 0.0 | 0.0 | 0.00 | 0.00 | 0.00 | 40 | 1012.8 |
| 20260504005256 | 13 | 244 | 0.0 | 0.0 | 0.00 | 0.00 | 0.00 | 40 | 1012.8 |
| 20260504005157 | 13 | 244 | 0.0 | 0.0 | 0.00 | 0.00 | 0.00 | 40 | 1012.8 |
| 20260504005036 | 13 | 244 | 0.0 | 0.0 | 0.00 | 0.00 | 0.00 | 40 | 1012.8 |
| 20260504004936 | 13 | 244 | 0.0 | 0.0 | 0.00 | 0.00 | 0.00 | 40 | 1012.8 |
| 20260504004839 | 13 | 244 | 0.0 | 0.0 | 0.00 | 0.00 | 0.00 | 40 | 1012.8 |
| 20260504004804 | 13 | 244 | 0.0 | 0.0 | 0.00 | 0.00 | 0.00 | 40 | 1012.8 |
| 20260504004644 | 13 | 244 | 0.0 | 0.0 | 0.00 | 0.00 | 0.00 | 39 | 1012.8 |
| 20260504004546 | 13 | 244 | 0.0 | 0.0 | 0.00 | 0.00 | 0.00 | 40 | 1012.8 |
| 20260504004442 | 13 | 244 | 0.0 | 0.0 | 0.00 | 0.00 | 0.00 | 39 | 1012.8 |
| 20260504004324 | 13 | 244 | 0.0 | 0.0 | 0.00 | 0.00 | 0.00 | 39 | 1012.6 |
| 20260504004226 | 13 | 244 | 0.0 | 0.0 | 0.00 | 0.00 | 0.00 | 39 | 1012.6 |
| 20260504004128 | 13 | 244 | 0.0 | 0.0 | 0.00 | 0.00 | 0.00 | 39 | 1012.6 |
| 20260504004026 | 13 | 244 | 0.0 | 0.0 | 0.00 | 0.00 | 0.00 | 39 | 1012.6 |
| 20260504003930 | 13 | 244 | 0.0 | 0.0 | 0.00 | 0.00 | 0.00 | 39 | 1012.6 |
| 20260504003831 | 13 | 244 | 0.0 | 0.0 | 0.00 | 0.00 | 0.00 | 38 | 1012.6 |
| 20260504003736 | 13 | 244 | 0.0 | 0.0 | 0.00 | 0.00 | 0.00 | 39 | 1012.6 |
| 20260504003657 | 13 | 244 | 0.0 | 0.0 | 0.00 | 0.00 | 0.00 | 39 | 1012.6 |
| 20260504003539 | 13 | 244 | 0.0 | 0.0 | 0.00 | 0.00 | 0.00 | 39 | 1012.6 |
| 20260504003456 | 13 | 244 | 0.0 | 0.0 | 0.00 | 0.00 | 0.00 | 39 | 1012.6 |
| 20260504003340 | 13 | 244 | 0.0 | 0.0 | 0.00 | 0.00 | 0.00 | 39 | 1012.6 |
| 20260504003242 | 13 | 244 | 0.0 | 0.0 | 0.00 | 0.00 | 0.00 | 38 | 1012.6 |
| 20260504003145 | 13 | 244 | 0.0 | 0.0 | 0.00 | 0.00 | 0.00 | 38 | 1012.6 |
| 20260504003043 | 13 | 244 | 0.0 | 0.0 | 0.00 | 0.00 | 0.00 | 38 | 1012.6 |
| 20260504002943 | 13 | 244 | 0.0 | 0.0 | 0.00 | 0.00 | 0.00 | 39 | 1012.6 |
| 20260504002845 | 13 | 244 | 0.0 | 0.0 | 0.00 | 0.00 | 0.00 | 38 | 1012.4 |
| 20260504002745 | 13 | 244 | 0.0 | 0.0 | 0.00 | 0.00 | 0.00 | 38 | 1012.4 |
| 20260504002643 | 13 | 244 | 0.0 | 0.0 | 0.00 | 0.00 | 0.00 | 38 | 1012.4 |
| 20260504002550 | 14 | 244 | 0.0 | 0.0 | 0.00 | 0.00 | 0.00 | 37 | 1012.4 |
| 20260504002426 | 14 | 244 | 0.0 | 0.0 | 0.00 | 0.00 | 0.00 | 38 | 1012.4 |
| 20260504002327 | 14 | 244 | 0.0 | 0.0 | 0.00 | 0.00 | 0.00 | 38 | 1012.4 |
| 20260504002245 | 14 | 244 | 0.0 | 0.0 | 0.00 | 0.00 | 0.00 | 37 | 1012.4 |
| 20260504002125 | 14 | 244 | 0.0 | 0.0 | 0.00 | 0.00 | 0.00 | 37 | 1012.4 |
| 20260504002048 | 14 | 244 | 0.0 | 0.0 | 0.00 | 0.00 | 0.00 | 37 | 1012.4 |
| 20260504001928 | 14 | 244 | 0.0 | 0.0 | 0.00 | 0.00 | 0.00 | 37 | 1012.4 |
| 20260504001850 | 14 | 244 | 0.0 | 0.0 | 0.00 | 0.00 | 0.00 | 37 | 1012.4 |
| 20260504001734 | 14 | 244 | 0.0 | 0.0 | 0.00 | 0.00 | 0.00 | 37 | 1012.4 |
| 20260504001653 | 14 | 244 | 0.0 | 0.0 | 0.00 | 0.00 | 0.00 | 37 | 1012.4 |
| 20260504001535 | 14 | 244 | 0.0 | 0.0 | 0.00 | 0.00 | 0.00 | 36 | 1012.4 |
| 20260504001452 | 14 | 244 | 0.0 | 0.0 | 0.00 | 0.00 | 0.00 | 36 | 1012.4 |
| 20260504001333 | 14 | 244 | 0.0 | 0.0 | 0.00 | 0.00 | 0.00 | 36 | 1012.2 |
| 20260504001231 | 14 | 267 | 0.0 | 0.0 | 0.00 | 0.00 | 0.00 | 36 | 1012.2 |
| 20260504001132 | 14 | 267 | 0.0 | 0.0 | 0.00 | 0.00 | 0.00 | 36 | 1012.2 |
| 20260504001035 | 14 | 267 | 0.0 | 0.0 | 0.00 | 0.00 | 0.00 | 36 | 1012.2 |
| 20260504000939 | 14 | 267 | 0.0 | 0.0 | 0.00 | 0.00 | 0.00 | 36 | 1012.2 |
| 20260504000842 | 14 | 267 | 0.0 | 0.0 | 0.00 | 0.00 | 0.00 | 36 | 1012.2 |
| 20260504000742 | 14 | 267 | 0.0 | 0.0 | 0.00 | 0.00 | 0.00 | 36 | 1012.2 |
| 20260504000639 | 15 | 267 | 0.0 | 0.0 | 0.00 | 0.00 | 0.00 | 36 | 1012.2 |
| 20260504000541 | 15 | 267 | 0.0 | 0.0 | 0.00 | 0.00 | 0.00 | 35 | 1012.2 |
| 20260504000438 | 15 | 267 | 0.0 | 0.0 | 0.00 | 0.00 | 0.00 | 35 | 1012.2 |
| 20260504000327 | 15 | 267 | 0.0 | 0.0 | 0.00 | 0.00 | 0.00 | 35 | 1012.2 |
| 20260504000226 | 15 | 267 | 0.0 | 0.0 | 0.00 | 0.00 | 0.00 | 35 | 1012.2 |
| 20260504000146 | 15 | 267 | 0.0 | 0.0 | 0.00 | 0.00 | 0.00 | 35 | 1012.2 |
| 20260504000045 | 15 | 267 | 0.0 | 0.0 | 0.00 | 0.00 | 0.00 | 34 | 1012.2 |
| 20260503235946 | 15 | 267 | 0.0 | 0.0 | 0.00 | 0.00 | 0.00 | 34 | 1012.2 |
| 20260503235824 | 15 | 268 | 0.0 | 0.0 | 0.00 | 0.00 | 0.00 | 34 | 1012.1 |
| 20260503235729 | 15 | 268 | 0.0 | 0.0 | 0.00 | 0.00 | 0.00 | 34 | 1012.1 |
| 20260503235627 | 15 | 268 | 0.0 | 0.0 | 0.00 | 0.00 | 0.00 | 33 | 1012.1 |
| 20260503235530 | 15 | 216 | 0.0 | 0.0 | 0.00 | 0.00 | 0.00 | 34 | 1012.1 |
| 20260503235426 | 15 | 216 | 0.0 | 0.0 | 0.00 | 0.00 | 0.00 | 33 | 1012.1 |
| 20260503235327 | 15 | 216 | 0.0 | 0.0 | 0.00 | 0.00 | 0.00 | 33 | 1012.1 |
| 20260503235225 | 15 | 224 | 0.0 | 0.0 | 0.00 | 0.00 | 0.00 | 33 | 1012.1 |
| 20260503235147 | 15 | 218 | 0.0 | 0.0 | 0.00 | 0.00 | 0.00 | 33 | 1012.1 |
| 20260503235033 | 15 | 216 | 0.0 | 0.0 | 0.00 | 0.00 | 0.00 | 33 | 1012.1 |
| 20260503234934 | 15 | 242 | 0.0 | 0.0 | 0.00 | 0.00 | 0.00 | 33 | 1012.1 |
| 20260503234855 | 15 | 242 | 0.0 | 0.0 | 0.00 | 0.00 | 0.00 | 33 | 1012.1 |
| 20260503234736 | 15 | 242 | 0.0 | 0.0 | 0.00 | 0.00 | 0.00 | 33 | 1012.1 |
| 20260503234658 | 15 | 242 | 0.0 | 0.0 | 0.00 | 0.00 | 0.00 | 33 | 1012.1 |
| 20260503234539 | 15 | 269 | 0.0 | 0.0 | 0.00 | 0.00 | 0.00 | 33 | 1012.1 |
| 20260503234439 | 15 | 270 | 0.0 | 0.0 | 0.00 | 0.00 | 0.00 | 33 | 1012.1 |
| 20260503234341 | 15 | 263 | 0.0 | 0.0 | 0.00 | 0.00 | 0.00 | 33 | 1012.0 |
| 20260503234242 | 15 | 263 | 0.0 | 0.0 | 0.00 | 0.00 | 0.00 | 33 | 1012.0 |
| 20260503234143 | 15 | 263 | 0.0 | 0.0 | 0.00 | 0.00 | 0.00 | 33 | 1012.0 |
| 20260503234025 | 15 | 256 | 0.0 | 0.0 | 0.00 | 0.00 | 0.00 | 32 | 1012.0 |
| 20260503233946 | 15 | 242 | 0.0 | 0.0 | 0.00 | 0.00 | 0.00 | 32 | 1012.0 |
| 20260503233823 | 15 | 290 | 1.6 | 0.0 | 0.00 | 0.00 | 0.00 | 33 | 1012.0 |
| 20260503233729 | 15 | 290 | 1.6 | 0.0 | 0.00 | 0.00 | 0.00 | 32 | 1012.0 |
| 20260503233630 | 15 | 290 | 1.6 | 0.0 | 0.00 | 0.00 | 0.00 | 32 | 1012.0 |
| 20260503233535 | 15 | 290 | 1.6 | 0.0 | 0.00 | 0.00 | 0.00 | 32 | 1012.0 |
| 20260503233436 | 15 | 290 | 1.6 | 0.0 | 0.00 | 0.00 | 0.00 | 32 | 1012.0 |
| 20260503233357 | 15 | 248 | 1.6 | 0.0 | 0.00 | 0.00 | 0.00 | 32 | 1012.0 |
| 20260503233233 | 15 | 219 | 1.6 | 0.0 | 0.00 | 0.00 | 0.00 | 31 | 1012.0 |
| 20260503233134 | 15 | 271 | 0.0 | 0.0 | 0.00 | 0.00 | 0.00 | 31 | 1012.0 |
| 20260503233033 | 15 | 277 | 1.6 | 0.0 | 0.00 | 0.00 | 0.00 | 32 | 1012.0 |
| 20260503232939 | 15 | 277 | 1.6 | 0.0 | 0.00 | 0.00 | 0.00 | 31 | 1012.0 |
| 20260503232836 | 15 | 188 | 1.6 | 0.0 | 0.00 | 0.00 | 0.00 | 31 | 1011.8 |
| 20260503232739 | 16 | 290 | 0.0 | 0.0 | 0.00 | 0.00 | 0.00 | 31 | 1011.8 |
| 20260503232637 | 16 | 290 | 0.0 | 0.0 | 0.00 | 0.00 | 0.00 | 31 | 1011.8 |
| 20260503232540 | 16 | 276 | 0.0 | 0.0 | 0.00 | 0.00 | 0.00 | 31 | 1011.8 |
| 20260503232436 | 16 | 250 | 0.0 | 0.0 | 0.00 | 0.00 | 0.00 | 31 | 1011.8 |
| 20260503232342 | 16 | 250 | 1.6 | 0.0 | 0.00 | 0.00 | 0.00 | 31 | 1011.8 |
| 20260503232305 | 16 | 251 | 1.6 | 0.0 | 0.00 | 0.00 | 0.00 | 31 | 1011.8 |
| 20260503232124 | 16 | 305 | 1.6 | 0.0 | 0.00 | 0.00 | 0.00 | 31 | 1011.8 |
| 20260503232046 | 16 | 305 | 1.6 | 0.0 | 0.00 | 0.00 | 0.00 | 31 | 1011.8 |
| 20260503231945 | 16 | 320 | 0.0 | 0.0 | 0.00 | 0.00 | 0.00 | 31 | 1011.8 |
| 20260503231843 | 16 | 294 | 0.0 | 0.0 | 0.00 | 0.00 | 0.00 | 31 | 1011.8 |
| 20260503231745 | 16 | 294 | 1.6 | 0.0 | 0.00 | 0.00 | 0.00 | 31 | 1011.8 |
| 20260503231627 | 16 | 239 | 1.6 | 0.0 | 0.00 | 0.00 | 0.00 | 32 | 1011.8 |
| 20260503231532 | 16 | 217 | 1.6 | 0.0 | 0.00 | 0.00 | 0.00 | 31 | 1011.8 |
| 20260503231430 | 16 | 268 | 1.6 | 0.0 | 0.00 | 0.00 | 0.00 | 32 | 1011.8 |
| 20260503231332 | 16 | 242 | 0.0 | 0.0 | 0.00 | 0.00 | 0.00 | 31 | 1011.7 |
| 20260503231231 | 16 | 322 | 0.0 | 0.0 | 0.00 | 0.00 | 0.00 | 30 | 1011.7 |
| 20260503231133 | 16 | 322 | 0.0 | 0.0 | 0.00 | 0.00 | 0.00 | 30 | 1011.7 |
| 20260503231031 | 16 | 322 | 1.6 | 0.0 | 0.00 | 0.00 | 0.00 | 31 | 1011.7 |
| 20260503230935 | 16 | 322 | 1.6 | 0.0 | 0.00 | 0.00 | 0.00 | 30 | 1011.7 |
| 20260503230835 | 16 | 322 | 1.6 | 0.0 | 0.00 | 0.00 | 0.00 | 31 | 1011.7 |
| 20260503230736 | 16 | 297 | 1.6 | 0.0 | 0.00 | 0.00 | 0.00 | 30 | 1011.7 |
| 20260503230654 | 16 | 297 | 1.6 | 0.0 | 0.00 | 0.00 | 0.00 | 30 | 1011.7 |
| 20260503230535 | 16 | 297 | 3.2 | 0.0 | 0.00 | 0.00 | 0.00 | 30 | 1011.7 |
| 20260503230436 | 16 | 260 | 3.2 | 0.0 | 0.00 | 0.00 | 0.00 | 30 | 1011.7 |
| 20260503230339 | 16 | 287 | 3.2 | 0.0 | 0.00 | 0.00 | 0.00 | 30 | 1011.7 |
| 20260503230220 | 16 | 242 | 3.2 | 0.0 | 0.00 | 0.00 | 0.00 | 30 | 1011.7 |
| 20260503230127 | 16 | 252 | 1.6 | 0.0 | 0.00 | 0.00 | 0.00 | 29 | 1011.7 |
| 20260503230029 | 16 | 299 | 1.6 | 0.0 | 0.00 | 0.00 | 0.00 | 30 | 1011.7 |
| 20260503225928 | 16 | 303 | 1.6 | 0.0 | 0.00 | 0.00 | 0.00 | 30 | 1011.7 |
| 20260503225827 | 16 | 289 | 1.6 | 0.0 | 0.00 | 0.00 | 0.00 | 30 | 1011.6 |
| 20260503225731 | 16 | 233 | 1.6 | 0.0 | 0.00 | 0.00 | 0.00 | 30 | 1011.6 |
| 20260503225634 | 16 | 276 | 1.6 | 0.0 | 0.00 | 0.00 | 0.00 | 30 | 1011.6 |
| 20260503225536 | 16 | 236 | 1.6 | 0.0 | 0.00 | 0.00 | 0.00 | 31 | 1011.6 |
| 20260503225434 | 16 | 271 | 1.6 | 0.0 | 0.00 | 0.00 | 0.00 | 30 | 1011.6 |
| 20260503225335 | 16 | 272 | 1.6 | 0.0 | 0.00 | 0.00 | 0.00 | 30 | 1011.6 |
| 20260503225253 | 16 | 277 | 1.6 | 0.0 | 0.00 | 0.00 | 0.00 | 30 | 1011.6 |
| 20260503225133 | 16 | 267 | 1.6 | 0.0 | 0.00 | 0.00 | 0.00 | 30 | 1011.6 |
| 20260503225052 | 16 | 249 | 1.6 | 0.0 | 0.00 | 0.00 | 0.00 | 29 | 1011.6 |
| 20260503224935 | 16 | 280 | 1.6 | 0.0 | 0.00 | 0.00 | 0.00 | 29 | 1011.6 |
| 20260503224836 | 16 | 311 | 1.6 | 0.0 | 0.00 | 0.00 | 0.00 | 29 | 1011.6 |
| 20260503224740 | 16 | 277 | 1.6 | 0.0 | 0.00 | 0.00 | 0.00 | 29 | 1011.6 |
| 20260503224642 | 16 | 278 | 1.6 | 0.0 | 0.00 | 0.00 | 0.00 | 30 | 1011.6 |
| 20260503224544 | 16 | 279 | 1.6 | 0.0 | 0.00 | 0.00 | 0.00 | 29 | 1011.6 |
| 20260503224425 | 16 | 278 | 1.6 | 0.0 | 0.00 | 0.00 | 0.00 | 29 | 1011.6 |
| 20260503224331 | 16 | 301 | 1.6 | 0.0 | 0.00 | 0.00 | 0.00 | 30 | 1011.6 |
| 20260503224228 | 16 | 302 | 1.6 | 0.0 | 0.00 | 0.00 | 0.00 | 29 | 1011.6 |
| 20260503224129 | 16 | 302 | 1.6 | 0.0 | 0.00 | 0.00 | 0.00 | 29 | 1011.6 |
| 20260503224032 | 16 | 307 | 1.6 | 0.0 | 0.00 | 0.00 | 0.00 | 29 | 1011.6 |
| 20260503223936 | 16 | 266 | 1.6 | 0.0 | 0.00 | 0.00 | 0.00 | 29 | 1011.6 |
| 20260503223837 | 16 | 274 | 1.6 | 0.0 | 0.00 | 0.00 | 0.00 | 29 | 1011.6 |
| 20260503223758 | 16 | 326 | 1.6 | 0.0 | 0.00 | 0.00 | 0.00 | 29 | 1011.6 |
| 20260503223641 | 16 | 329 | 0.0 | 0.0 | 0.00 | 0.00 | 0.00 | 29 | 1011.6 |
| 20260503223544 | 16 | 300 | 0.0 | 0.0 | 0.00 | 0.00 | 0.00 | 29 | 1011.6 |